| time (UTC) | temp C | wind direction | speed KPH | gust KPH | rain 1hr cm | rain 24hr cm | rain mn cm | humidity % | barometer mb |
| 20260902113508 | 25 | 267 | 0.0 | 0.0 | 0.00 | 0.00 | 0.00 | 78 | 1022.0 |
| 20260902113407 | 25 | 227 | 0.0 | 0.0 | 0.00 | 0.00 | 0.00 | 78 | 1021.9 |
| 20260902113308 | 25 | 225 | 0.0 | 0.0 | 0.00 | 0.00 | 0.00 | 78 | 1021.9 |
| 20260902113206 | 25 | 229 | 0.0 | 0.0 | 0.00 | 0.00 | 0.00 | 78 | 1021.9 |
| 20260902113108 | 25 | 259 | 0.0 | 0.0 | 0.00 | 0.00 | 0.00 | 78 | 1022.0 |
| 20260902113008 | 25 | 265 | 0.0 | 0.0 | 0.00 | 0.00 | 0.00 | 78 | 1021.9 |
| 20260902112901 | 25 | 259 | 0.0 | 0.0 | 0.00 | 0.00 | 0.00 | 78 | 1021.7 |
| 20260902112802 | 25 | 244 | 0.0 | 0.0 | 0.00 | 0.00 | 0.00 | 78 | 1021.9 |
| 20260902112700 | 25 | 250 | 0.0 | 0.0 | 0.00 | 0.00 | 0.00 | 78 | 1021.7 |
| 20260902112601 | 25 | 258 | 0.0 | 0.0 | 0.00 | 0.00 | 0.00 | 78 | 1021.9 |
| 20260902112502 | 25 | 259 | 0.0 | 0.0 | 0.00 | 0.00 | 0.00 | 78 | 1021.9 |
| 20260902112354 | 25 | 258 | 0.0 | 0.0 | 0.00 | 0.00 | 0.00 | 78 | 1021.7 |
| 20260902112255 | 25 | 257 | 0.0 | 0.0 | 0.00 | 0.00 | 0.00 | 77 | 1021.7 |
| 20260902112155 | 25 | 271 | 0.0 | 0.0 | 0.00 | 0.00 | 0.00 | 78 | 1021.9 |
| 20260902112057 | 25 | 266 | 0.0 | 0.0 | 0.00 | 0.00 | 0.00 | 77 | 1021.6 |
| 20260902111956 | 25 | 271 | 0.0 | 0.0 | 0.00 | 0.00 | 0.00 | 78 | 1021.6 |
| 20260902111856 | 25 | 272 | 0.0 | 0.0 | 0.00 | 0.00 | 0.00 | 77 | 1021.7 |
| 20260902111752 | 25 | 273 | 0.0 | 0.0 | 0.00 | 0.00 | 0.00 | 77 | 1021.7 |
| 20260902111653 | 25 | 273 | 0.0 | 0.0 | 0.00 | 0.00 | 0.00 | 77 | 1021.6 |
| 20260902111552 | 25 | 272 | 0.0 | 0.0 | 0.00 | 0.00 | 0.00 | 77 | 1021.6 |
| 20260902111452 | 25 | 272 | 0.0 | 0.0 | 0.00 | 0.00 | 0.00 | 77 | 1021.6 |
| 20260902111351 | 25 | 272 | 0.0 | 0.0 | 0.00 | 0.00 | 0.00 | 77 | 1021.6 |
| 20260902111251 | 25 | 271 | 0.0 | 0.0 | 0.00 | 0.00 | 0.00 | 77 | 1021.6 |
| 20260902111149 | 25 | 281 | 0.0 | 0.0 | 0.00 | 0.00 | 0.00 | 77 | 1021.6 |
| 20260902111050 | 25 | 291 | 0.0 | 0.0 | 0.00 | 0.00 | 0.00 | 77 | 1021.6 |
| 20260902110949 | 25 | 293 | 0.0 | 0.0 | 0.00 | 0.00 | 0.00 | 77 | 1021.6 |
| 20260902110850 | 25 | 293 | 0.0 | 0.0 | 0.00 | 0.00 | 0.00 | 77 | 1021.6 |
| 20260902110749 | 25 | 292 | 0.0 | 0.0 | 0.00 | 0.00 | 0.00 | 77 | 1021.6 |
| 20260902110648 | 25 | 296 | 0.0 | 0.0 | 0.00 | 0.00 | 0.00 | 77 | 1021.6 |
| 20260902110548 | 25 | 296 | 0.0 | 0.0 | 0.00 | 0.00 | 0.00 | 77 | 1021.6 |
| 20260902110448 | 25 | 294 | 0.0 | 0.0 | 0.00 | 0.00 | 0.00 | 77 | 1021.6 |
| 20260902110346 | 25 | 294 | 0.0 | 0.0 | 0.00 | 0.00 | 0.00 | 77 | 1021.7 |
| 20260902110243 | 25 | 294 | 0.0 | 0.0 | 0.00 | 0.00 | 0.00 | 77 | 1021.6 |
| 20260902110143 | 25 | 293 | 0.0 | 0.0 | 0.00 | 0.00 | 0.00 | 77 | 1021.6 |
| 20260902110043 | 25 | 293 | 0.0 | 0.0 | 0.00 | 0.00 | 0.00 | 77 | 1021.7 |
| 20260902105944 | 25 | 294 | 0.0 | 0.0 | 0.00 | 0.00 | 0.00 | 77 | 1021.7 |
| 20260902105841 | 25 | 294 | 0.0 | 0.0 | 0.00 | 0.00 | 0.00 | 77 | 1021.7 |
| 20260902105740 | 25 | 294 | 0.0 | 0.0 | 0.00 | 0.00 | 0.00 | 77 | 1021.7 |
| 20260902105638 | 25 | 294 | 0.0 | 0.0 | 0.00 | 0.00 | 0.00 | 77 | 1021.6 |
| 20260902105538 | 25 | 293 | 0.0 | 0.0 | 0.00 | 0.00 | 0.00 | 77 | 1021.7 |
| 20260902105438 | 25 | 293 | 0.0 | 0.0 | 0.00 | 0.00 | 0.00 | 77 | 1021.6 |
| 20260902105335 | 25 | 293 | 0.0 | 0.0 | 0.00 | 0.00 | 0.00 | 77 | 1021.6 |
| 20260902105233 | 25 | 293 | 0.0 | 0.0 | 0.00 | 0.00 | 0.00 | 77 | 1021.6 |
| 20260902105134 | 25 | 293 | 0.0 | 0.0 | 0.00 | 0.00 | 0.00 | 77 | 1021.7 |
| 20260902105031 | 25 | 293 | 0.0 | 0.0 | 0.00 | 0.00 | 0.00 | 77 | 1021.7 |
| 20260902104929 | 25 | 293 | 0.0 | 0.0 | 0.00 | 0.00 | 0.00 | 77 | 1021.7 |
| 20260902104828 | 25 | 293 | 0.0 | 0.0 | 0.00 | 0.00 | 0.00 | 77 | 1021.7 |
| 20260902104728 | 25 | 293 | 0.0 | 0.0 | 0.00 | 0.00 | 0.00 | 77 | 1021.9 |
| 20260902104620 | 25 | 293 | 0.0 | 0.0 | 0.00 | 0.00 | 0.00 | 77 | 1021.7 |
| 20260902104521 | 25 | 293 | 0.0 | 0.0 | 0.00 | 0.00 | 0.00 | 77 | 1021.6 |
| 20260902104421 | 25 | 294 | 0.0 | 0.0 | 0.00 | 0.00 | 0.00 | 77 | 1021.9 |
| 20260902104319 | 25 | 294 | 0.0 | 0.0 | 0.00 | 0.00 | 0.00 | 77 | 1021.9 |
| 20260902104218 | 25 | 293 | 0.0 | 0.0 | 0.00 | 0.00 | 0.00 | 77 | 1021.7 |
| 20260902104114 | 25 | 294 | 0.0 | 0.0 | 0.00 | 0.00 | 0.00 | 77 | 1021.7 |
| 20260902104010 | 25 | 294 | 0.0 | 0.0 | 0.00 | 0.00 | 0.00 | 78 | 1021.9 |
| 20260902103912 | 25 | 294 | 0.0 | 0.0 | 0.00 | 0.00 | 0.00 | 78 | 1021.9 |
| 20260902103810 | 25 | 294 | 0.0 | 0.0 | 0.00 | 0.00 | 0.00 | 78 | 1021.7 |
| 20260902103712 | 25 | 294 | 0.0 | 0.0 | 0.00 | 0.00 | 0.00 | 78 | 1021.7 |
| 20260902103610 | 25 | 294 | 0.0 | 0.0 | 0.00 | 0.00 | 0.00 | 78 | 1021.7 |
| 20260902103510 | 25 | 294 | 0.0 | 0.0 | 0.00 | 0.00 | 0.00 | 78 | 1021.7 |
| 20260902103408 | 25 | 294 | 0.0 | 0.0 | 0.00 | 0.00 | 0.00 | 78 | 1021.7 |
| 20260902103308 | 25 | 294 | 0.0 | 0.0 | 0.00 | 0.00 | 0.00 | 78 | 1021.7 |
| 20260902103206 | 25 | 294 | 0.0 | 0.0 | 0.00 | 0.00 | 0.00 | 78 | 1021.9 |
| 20260902103101 | 25 | 293 | 0.0 | 0.0 | 0.00 | 0.00 | 0.00 | 78 | 1021.7 |
| 20260902103002 | 25 | 293 | 0.0 | 0.0 | 0.00 | 0.00 | 0.00 | 78 | 1021.7 |
| 20260902102901 | 25 | 293 | 0.0 | 0.0 | 0.00 | 0.00 | 0.00 | 78 | 1021.9 |
| 20260902102801 | 25 | 293 | 0.0 | 0.0 | 0.00 | 0.00 | 0.00 | 78 | 1021.9 |
| 20260902102701 | 25 | 293 | 0.0 | 0.0 | 0.00 | 0.00 | 0.00 | 79 | 1021.9 |
| 20260902102600 | 25 | 293 | 0.0 | 0.0 | 0.00 | 0.00 | 0.00 | 79 | 1021.7 |
| 20260902102456 | 25 | 293 | 0.0 | 0.0 | 0.00 | 0.00 | 0.00 | 79 | 1021.7 |
| 20260902102357 | 25 | 293 | 0.0 | 0.0 | 0.00 | 0.00 | 0.00 | 79 | 1021.7 |
| 20260902102255 | 25 | 293 | 0.0 | 0.0 | 0.00 | 0.00 | 0.00 | 79 | 1021.7 |
| 20260902102156 | 25 | 294 | 0.0 | 0.0 | 0.00 | 0.00 | 0.00 | 78 | 1022.0 |
| 20260902102054 | 25 | 294 | 0.0 | 0.0 | 0.00 | 0.00 | 0.00 | 79 | 1021.9 |
| 20260902101956 | 25 | 294 | 0.0 | 0.0 | 0.00 | 0.00 | 0.00 | 79 | 1021.9 |
| 20260902101855 | 25 | 294 | 0.0 | 0.0 | 0.00 | 0.00 | 0.00 | 79 | 1021.9 |
| 20260902101754 | 25 | 296 | 0.0 | 0.0 | 0.00 | 0.00 | 0.00 | 79 | 1021.6 |
| 20260902101650 | 25 | 296 | 0.0 | 0.0 | 0.00 | 0.00 | 0.00 | 79 | 1021.9 |
| 20260902101551 | 25 | 297 | 0.0 | 0.0 | 0.00 | 0.00 | 0.00 | 79 | 1021.7 |
| 20260902101450 | 25 | 297 | 0.0 | 0.0 | 0.00 | 0.00 | 0.00 | 79 | 1021.9 |
| 20260902101350 | 25 | 297 | 0.0 | 0.0 | 0.00 | 0.00 | 0.00 | 79 | 1021.7 |
| 20260902101247 | 25 | 298 | 0.0 | 0.0 | 0.00 | 0.00 | 0.00 | 79 | 1021.9 |
| 20260902101147 | 25 | 298 | 0.0 | 0.0 | 0.00 | 0.00 | 0.00 | 79 | 1021.9 |
| 20260902101045 | 25 | 298 | 0.0 | 0.0 | 0.00 | 0.00 | 0.00 | 79 | 1021.9 |
| 20260902100942 | 25 | 299 | 0.0 | 0.0 | 0.00 | 0.00 | 0.00 | 79 | 1021.7 |
| 20260902100841 | 25 | 300 | 0.0 | 0.0 | 0.00 | 0.00 | 0.00 | 79 | 1021.7 |
| 20260902100741 | 25 | 300 | 0.0 | 0.0 | 0.00 | 0.00 | 0.00 | 79 | 1021.7 |
| 20260902100642 | 25 | 301 | 0.0 | 0.0 | 0.00 | 0.00 | 0.00 | 79 | 1021.7 |
| 20260902100540 | 25 | 304 | 0.0 | 0.0 | 0.00 | 0.00 | 0.00 | 79 | 1021.7 |
| 20260902100438 | 25 | 304 | 0.0 | 0.0 | 0.00 | 0.00 | 0.00 | 79 | 1021.6 |
| 20260902100334 | 25 | 306 | 0.0 | 0.0 | 0.00 | 0.00 | 0.00 | 79 | 1021.6 |
| 20260902100235 | 25 | 304 | 0.0 | 0.0 | 0.00 | 0.00 | 0.00 | 79 | 1021.7 |
| 20260902100135 | 25 | 302 | 0.0 | 0.0 | 0.00 | 0.00 | 0.00 | 79 | 1021.7 |
| 20260902100035 | 25 | 304 | 0.0 | 0.0 | 0.00 | 0.00 | 0.00 | 79 | 1021.5 |
| 20260902095936 | 25 | 305 | 0.0 | 0.0 | 0.00 | 0.00 | 0.00 | 79 | 1021.5 |
| 20260902095836 | 25 | 304 | 0.0 | 0.0 | 0.00 | 0.00 | 0.00 | 79 | 1021.6 |
| 20260902095734 | 25 | 307 | 0.0 | 0.0 | 0.00 | 0.00 | 0.00 | 79 | 1021.6 |
| 20260902095632 | 25 | 307 | 0.0 | 0.0 | 0.00 | 0.00 | 0.00 | 79 | 1021.6 |
| 20260902095531 | 25 | 306 | 0.0 | 0.0 | 0.00 | 0.00 | 0.00 | 79 | 1021.6 |
| 20260902095430 | 25 | 307 | 0.0 | 0.0 | 0.00 | 0.00 | 0.00 | 79 | 1021.6 |
| 20260902095328 | 25 | 308 | 0.0 | 0.0 | 0.00 | 0.00 | 0.00 | 79 | 1021.6 |
| 20260902095226 | 25 | 306 | 0.0 | 0.0 | 0.00 | 0.00 | 0.00 | 79 | 1021.6 |
| 20260902095126 | 25 | 306 | 0.0 | 0.0 | 0.00 | 0.00 | 0.00 | 79 | 1021.5 |
| 20260902095025 | 25 | 304 | 0.0 | 0.0 | 0.00 | 0.00 | 0.00 | 79 | 1021.5 |
| 20260902094923 | 25 | 305 | 0.0 | 0.0 | 0.00 | 0.00 | 0.00 | 79 | 1021.5 |
| 20260902094821 | 25 | 304 | 0.0 | 0.0 | 0.00 | 0.00 | 0.00 | 79 | 1021.6 |
| 20260902094722 | 25 | 304 | 0.0 | 0.0 | 0.00 | 0.00 | 0.00 | 79 | 1021.5 |
| 20260902094619 | 25 | 302 | 0.0 | 0.0 | 0.00 | 0.00 | 0.00 | 79 | 1021.5 |
| 20260902094519 | 25 | 302 | 0.0 | 0.0 | 0.00 | 0.00 | 0.00 | 79 | 1021.4 |
| 20260902094420 | 25 | 301 | 0.0 | 0.0 | 0.00 | 0.00 | 0.00 | 79 | 1021.5 |
| 20260902094320 | 25 | 304 | 0.0 | 0.0 | 0.00 | 0.00 | 0.00 | 79 | 1021.6 |
| 20260902094220 | 25 | 306 | 0.0 | 0.0 | 0.00 | 0.00 | 0.00 | 79 | 1021.5 |
| 20260902094120 | 25 | 306 | 0.0 | 0.0 | 0.00 | 0.00 | 0.00 | 79 | 1021.5 |
| 20260902094019 | 25 | 306 | 0.0 | 0.0 | 0.00 | 0.00 | 0.00 | 79 | 1021.5 |
| 20260902093920 | 25 | 306 | 0.0 | 0.0 | 0.00 | 0.00 | 0.00 | 79 | 1021.6 |
| 20260902093818 | 25 | 306 | 0.0 | 0.0 | 0.00 | 0.00 | 0.00 | 79 | 1021.5 |
| 20260902093718 | 25 | 306 | 0.0 | 0.0 | 0.00 | 0.00 | 0.00 | 79 | 1021.6 |
| 20260902093617 | 25 | 306 | 0.0 | 0.0 | 0.00 | 0.00 | 0.00 | 79 | 1021.5 |
| 20260902093516 | 25 | 307 | 0.0 | 0.0 | 0.00 | 0.00 | 0.00 | 79 | 1021.6 |
| 20260902093414 | 25 | 309 | 0.0 | 0.0 | 0.00 | 0.00 | 0.00 | 79 | 1021.5 |
| 20260902093314 | 25 | 308 | 0.0 | 0.0 | 0.00 | 0.00 | 0.00 | 79 | 1021.5 |
| 20260902093211 | 25 | 304 | 0.0 | 0.0 | 0.00 | 0.00 | 0.00 | 79 | 1021.5 |
| 20260902093110 | 25 | 307 | 0.0 | 0.0 | 0.00 | 0.00 | 0.00 | 79 | 1021.5 |
| 20260902093009 | 25 | 306 | 0.0 | 0.0 | 0.00 | 0.00 | 0.00 | 79 | 1021.5 |
| 20260902092910 | 25 | 323 | 0.0 | 0.0 | 0.00 | 0.00 | 0.00 | 79 | 1021.5 |
| 20260902092808 | 25 | 303 | 0.0 | 0.0 | 0.00 | 0.00 | 0.00 | 79 | 1021.4 |
| 20260902092709 | 25 | 304 | 0.0 | 0.0 | 0.00 | 0.00 | 0.00 | 79 | 1021.4 |
| 20260902092603 | 25 | 306 | 0.0 | 0.0 | 0.00 | 0.00 | 0.00 | 79 | 1021.4 |
| 20260902092504 | 25 | 309 | 0.0 | 0.0 | 0.00 | 0.00 | 0.00 | 79 | 1021.5 |
| 20260902092403 | 25 | 296 | 0.0 | 0.0 | 0.00 | 0.00 | 0.00 | 79 | 1021.4 |
| 20260902092305 | 25 | 303 | 0.0 | 0.0 | 0.00 | 0.00 | 0.00 | 79 | 1021.5 |
| 20260902092203 | 25 | 311 | 0.0 | 0.0 | 0.00 | 0.00 | 0.00 | 78 | 1021.4 |
| 20260902092102 | 25 | 317 | 0.0 | 0.0 | 0.00 | 0.00 | 0.00 | 78 | 1021.4 |
| 20260902092005 | 25 | 311 | 0.0 | 0.0 | 0.00 | 0.00 | 0.00 | 78 | 1021.4 |
| 20260902091904 | 25 | 320 | 0.0 | 0.0 | 0.00 | 0.00 | 0.00 | 78 | 1021.4 |
| 20260902091802 | 25 | 319 | 0.0 | 0.0 | 0.00 | 0.00 | 0.00 | 78 | 1021.4 |
| 20260902091703 | 25 | 313 | 0.0 | 0.0 | 0.00 | 0.00 | 0.00 | 78 | 1021.5 |
| 20260902091604 | 25 | 326 | 0.0 | 0.0 | 0.00 | 0.00 | 0.00 | 78 | 1021.5 |
| 20260902091503 | 25 | 315 | 0.0 | 0.0 | 0.00 | 0.00 | 0.00 | 78 | 1021.4 |
| 20260902091403 | 25 | 317 | 0.0 | 0.0 | 0.00 | 0.00 | 0.00 | 78 | 1021.4 |
| 20260902091302 | 25 | 313 | 0.0 | 0.0 | 0.00 | 0.00 | 0.00 | 78 | 1021.5 |
| 20260902091202 | 25 | 305 | 0.0 | 0.0 | 0.00 | 0.00 | 0.00 | 78 | 1021.5 |
| 20260902091103 | 25 | 306 | 0.0 | 0.0 | 0.00 | 0.00 | 0.00 | 78 | 1021.4 |
| 20260902091003 | 25 | 319 | 0.0 | 0.0 | 0.00 | 0.00 | 0.00 | 78 | 1021.4 |
| 20260902090904 | 25 | 306 | 0.0 | 0.0 | 0.00 | 0.00 | 0.00 | 78 | 1021.4 |
| 20260902090804 | 25 | 302 | 0.0 | 0.0 | 0.00 | 0.00 | 0.00 | 78 | 1021.4 |
| 20260902090704 | 25 | 310 | 0.0 | 0.0 | 0.00 | 0.00 | 0.00 | 79 | 1021.4 |
| 20260902090602 | 25 | 294 | 0.0 | 0.0 | 0.00 | 0.00 | 0.00 | 79 | 1021.5 |
| 20260902090505 | 25 | 304 | 0.0 | 0.0 | 0.00 | 0.00 | 0.00 | 79 | 1021.4 |
| 20260902090402 | 25 | 298 | 0.0 | 0.0 | 0.00 | 0.00 | 0.00 | 79 | 1021.5 |
| 20260902090303 | 25 | 309 | 0.0 | 0.0 | 0.00 | 0.00 | 0.00 | 79 | 1021.4 |
| 20260902090203 | 25 | 284 | 0.0 | 0.0 | 0.00 | 0.00 | 0.00 | 79 | 1021.4 |
| 20260902090002 | 25 | 296 | 0.0 | 0.0 | 0.00 | 0.00 | 0.00 | 79 | 1021.4 |
| 20260902085902 | 25 | 312 | 0.0 | 0.0 | 0.00 | 0.00 | 0.00 | 79 | 1021.4 |
| 20260902085804 | 25 | 313 | 0.0 | 0.0 | 0.00 | 0.00 | 0.00 | 79 | 1021.5 |
| 20260902085659 | 25 | 313 | 0.0 | 0.0 | 0.00 | 0.00 | 0.00 | 79 | 1021.4 |
| 20260902085556 | 25 | 306 | 0.0 | 0.0 | 0.00 | 0.00 | 0.00 | 79 | 1021.4 |
| 20260902085458 | 25 | 315 | 0.0 | 0.0 | 0.00 | 0.00 | 0.00 | 79 | 1021.3 |
| 20260902085355 | 25 | 304 | 0.0 | 0.0 | 0.00 | 0.00 | 0.00 | 79 | 1021.4 |
| 20260902085256 | 25 | 301 | 0.0 | 0.0 | 0.00 | 0.00 | 0.00 | 79 | 1021.4 |
| 20260902085154 | 25 | 299 | 0.0 | 0.0 | 0.00 | 0.00 | 0.00 | 79 | 1021.4 |
| 20260902085052 | 25 | 302 | 0.0 | 0.0 | 0.00 | 0.00 | 0.00 | 79 | 1021.4 |
| 20260902084952 | 25 | 296 | 0.0 | 0.0 | 0.00 | 0.00 | 0.00 | 79 | 1021.4 |
| 20260902084850 | 25 | 300 | 0.0 | 0.0 | 0.00 | 0.00 | 0.00 | 79 | 1021.4 |
| 20260902084750 | 25 | 296 | 0.0 | 0.0 | 0.00 | 0.00 | 0.00 | 79 | 1021.4 |
| 20260902084645 | 25 | 296 | 0.0 | 0.0 | 0.00 | 0.00 | 0.00 | 79 | 1021.4 |
| 20260902084543 | 25 | 288 | 0.0 | 0.0 | 0.00 | 0.00 | 0.00 | 79 | 1021.4 |
| 20260902084443 | 25 | 288 | 0.0 | 0.0 | 0.00 | 0.00 | 0.00 | 79 | 1021.4 |
| 20260902084344 | 25 | 282 | 0.0 | 0.0 | 0.00 | 0.00 | 0.00 | 79 | 1021.5 |
| 20260902084240 | 25 | 281 | 0.0 | 0.0 | 0.00 | 0.00 | 0.00 | 79 | 1021.4 |
| 20260902084140 | 25 | 281 | 0.0 | 0.0 | 0.00 | 0.00 | 0.00 | 79 | 1021.4 |
| 20260902084040 | 25 | 281 | 0.0 | 0.0 | 0.00 | 0.00 | 0.00 | 79 | 1021.4 |
| 20260902083938 | 25 | 281 | 0.0 | 0.0 | 0.00 | 0.00 | 0.00 | 79 | 1021.4 |
| 20260902083837 | 25 | 284 | 0.0 | 0.0 | 0.00 | 0.00 | 0.00 | 79 | 1021.4 |
| 20260902083735 | 25 | 284 | 0.0 | 0.0 | 0.00 | 0.00 | 0.00 | 79 | 1021.4 |
| 20260902083635 | 25 | 285 | 0.0 | 0.0 | 0.00 | 0.00 | 0.00 | 79 | 1021.4 |
| 20260902083534 | 25 | 289 | 0.0 | 0.0 | 0.00 | 0.00 | 0.00 | 79 | 1021.4 |
| 20260902083432 | 25 | 290 | 0.0 | 0.0 | 0.00 | 0.00 | 0.00 | 79 | 1021.4 |
| 20260902083334 | 25 | 291 | 0.0 | 0.0 | 0.00 | 0.00 | 0.00 | 79 | 1021.4 |
| 20260902083233 | 25 | 290 | 0.0 | 0.0 | 0.00 | 0.00 | 0.00 | 79 | 1021.5 |
| 20260902083132 | 25 | 296 | 0.0 | 0.0 | 0.00 | 0.00 | 0.00 | 79 | 1021.4 |
| 20260902083031 | 25 | 294 | 0.0 | 0.0 | 0.00 | 0.00 | 0.00 | 79 | 1021.5 |
| 20260902082932 | 25 | 289 | 0.0 | 0.0 | 0.00 | 0.00 | 0.00 | 79 | 1021.4 |
| 20260902082831 | 25 | 292 | 0.0 | 0.0 | 0.00 | 0.00 | 0.00 | 79 | 1021.4 |
| 20260902082729 | 25 | 291 | 0.0 | 0.0 | 0.00 | 0.00 | 0.00 | 79 | 1021.4 |
| 20260902082629 | 25 | 292 | 0.0 | 0.0 | 0.00 | 0.00 | 0.00 | 79 | 1021.4 |
| 20260902082527 | 25 | 292 | 0.0 | 0.0 | 0.00 | 0.00 | 0.00 | 79 | 1021.4 |
| 20260902082423 | 25 | 294 | 0.0 | 0.0 | 0.00 | 0.00 | 0.00 | 79 | 1021.4 |
| 20260902082324 | 25 | 294 | 0.0 | 0.0 | 0.00 | 0.00 | 0.00 | 79 | 1021.4 |
| 20260902082222 | 25 | 292 | 0.0 | 0.0 | 0.00 | 0.00 | 0.00 | 79 | 1021.4 |
| 20260902082122 | 25 | 285 | 0.0 | 0.0 | 0.00 | 0.00 | 0.00 | 79 | 1021.4 |
| 20260902082024 | 25 | 284 | 0.0 | 0.0 | 0.00 | 0.00 | 0.00 | 78 | 1021.4 |
| 20260902081921 | 25 | 286 | 0.0 | 0.0 | 0.00 | 0.00 | 0.00 | 78 | 1021.4 |
| 20260902081821 | 25 | 275 | 0.0 | 0.0 | 0.00 | 0.00 | 0.00 | 78 | 1021.4 |
| 20260902081721 | 25 | 292 | 0.0 | 0.0 | 0.00 | 0.00 | 0.00 | 78 | 1021.4 |
| 20260902081621 | 25 | 301 | 0.0 | 0.0 | 0.00 | 0.00 | 0.00 | 78 | 1021.3 |
| 20260902081522 | 25 | 301 | 0.0 | 0.0 | 0.00 | 0.00 | 0.00 | 78 | 1021.3 |
| 20260902081420 | 25 | 283 | 0.0 | 0.0 | 0.00 | 0.00 | 0.00 | 78 | 1021.4 |
| 20260902081321 | 25 | 286 | 0.0 | 0.0 | 0.00 | 0.00 | 0.00 | 78 | 1021.4 |
| 20260902081213 | 25 | 281 | 0.0 | 0.0 | 0.00 | 0.00 | 0.00 | 78 | 1021.3 |
| 20260902081112 | 25 | 279 | 0.0 | 0.0 | 0.00 | 0.00 | 0.00 | 78 | 1021.5 |
| 20260902081012 | 25 | 292 | 0.0 | 0.0 | 0.00 | 0.00 | 0.00 | 78 | 1021.5 |
| 20260902080912 | 25 | 293 | 0.0 | 0.0 | 0.00 | 0.00 | 0.00 | 77 | 1021.4 |
| 20260902080813 | 25 | 290 | 0.0 | 0.0 | 0.00 | 0.00 | 0.00 | 78 | 1021.4 |
| 20260902080714 | 25 | 309 | 0.0 | 0.0 | 0.00 | 0.00 | 0.00 | 77 | 1021.4 |
| 20260902080612 | 25 | 292 | 0.0 | 0.0 | 0.00 | 0.00 | 0.00 | 77 | 1021.4 |
| 20260902080514 | 25 | 306 | 0.0 | 0.0 | 0.00 | 0.00 | 0.00 | 78 | 1021.4 |
| 20260902080412 | 25 | 325 | 0.0 | 0.0 | 0.00 | 0.00 | 0.00 | 77 | 1021.4 |
| 20260902080314 | 25 | 291 | 0.0 | 0.0 | 0.00 | 0.00 | 0.00 | 77 | 1021.4 |
| 20260902080214 | 25 | 294 | 0.0 | 0.0 | 0.00 | 0.00 | 0.00 | 77 | 1021.3 |
| 20260902080112 | 25 | 296 | 0.0 | 0.0 | 0.00 | 0.00 | 0.00 | 77 | 1021.4 |
| 20260902080013 | 25 | 298 | 0.0 | 0.0 | 0.00 | 0.00 | 0.00 | 77 | 1021.4 |
| 20260902075913 | 25 | 303 | 0.0 | 0.0 | 0.00 | 0.00 | 0.00 | 77 | 1021.4 |
| 20260902075812 | 25 | 302 | 0.0 | 0.0 | 0.00 | 0.00 | 0.00 | 77 | 1021.4 |
| 20260902075714 | 25 | 305 | 0.0 | 0.0 | 0.00 | 0.00 | 0.00 | 77 | 1021.4 |
| 20260902075612 | 25 | 296 | 0.0 | 0.0 | 0.00 | 0.00 | 0.00 | 77 | 1021.4 |
| 20260902075514 | 25 | 295 | 0.0 | 0.0 | 0.00 | 0.00 | 0.00 | 77 | 1021.3 |
| 20260902075412 | 25 | 295 | 0.0 | 0.0 | 0.00 | 0.00 | 0.00 | 77 | 1021.3 |
| 20260902075314 | 25 | 294 | 0.0 | 0.0 | 0.00 | 0.00 | 0.00 | 77 | 1021.3 |
| 20260902075212 | 25 | 294 | 0.0 | 0.0 | 0.00 | 0.00 | 0.00 | 77 | 1021.3 |
| 20260902075113 | 25 | 294 | 0.0 | 0.0 | 0.00 | 0.00 | 0.00 | 77 | 1021.3 |
| 20260902075013 | 25 | 294 | 0.0 | 0.0 | 0.00 | 0.00 | 0.00 | 77 | 1021.3 |
| 20260902074912 | 25 | 284 | 0.0 | 0.0 | 0.00 | 0.00 | 0.00 | 77 | 1021.2 |
| 20260902074813 | 25 | 284 | 0.0 | 0.0 | 0.00 | 0.00 | 0.00 | 77 | 1021.3 |
| 20260902074714 | 25 | 284 | 0.0 | 0.0 | 0.00 | 0.00 | 0.00 | 77 | 1021.2 |
| 20260902074613 | 25 | 284 | 0.0 | 0.0 | 0.00 | 0.00 | 0.00 | 77 | 1021.3 |
| 20260902074512 | 25 | 284 | 0.0 | 0.0 | 0.00 | 0.00 | 0.00 | 77 | 1021.2 |
| 20260902074413 | 25 | 284 | 0.0 | 0.0 | 0.00 | 0.00 | 0.00 | 77 | 1021.4 |
| 20260902074313 | 25 | 284 | 0.0 | 0.0 | 0.00 | 0.00 | 0.00 | 77 | 1021.3 |
| 20260902074213 | 25 | 284 | 0.0 | 0.0 | 0.00 | 0.00 | 0.00 | 77 | 1021.2 |
| 20260902074113 | 25 | 283 | 0.0 | 0.0 | 0.00 | 0.00 | 0.00 | 77 | 1021.3 |
| 20260902074013 | 25 | 283 | 0.0 | 0.0 | 0.00 | 0.00 | 0.00 | 77 | 1021.3 |
| 20260902073908 | 25 | 283 | 0.0 | 0.0 | 0.00 | 0.00 | 0.00 | 77 | 1021.2 |
| 20260902073810 | 25 | 282 | 0.0 | 0.0 | 0.00 | 0.00 | 0.00 | 77 | 1021.3 |
| 20260902073709 | 25 | 271 | 0.0 | 0.0 | 0.00 | 0.00 | 0.00 | 77 | 1021.3 |
| 20260902073609 | 25 | 271 | 0.0 | 0.0 | 0.00 | 0.00 | 0.00 | 77 | 1021.3 |
| 20260902073509 | 25 | 271 | 0.0 | 0.0 | 0.00 | 0.00 | 0.00 | 77 | 1021.3 |
| 20260902073408 | 25 | 271 | 0.0 | 0.0 | 0.00 | 0.00 | 0.00 | 77 | 1021.3 |
| 20260902073310 | 25 | 271 | 0.0 | 0.0 | 0.00 | 0.00 | 0.00 | 77 | 1021.3 |
| 20260902073209 | 25 | 271 | 0.0 | 0.0 | 0.00 | 0.00 | 0.00 | 77 | 1021.3 |
| 20260902073109 | 25 | 268 | 0.0 | 0.0 | 0.00 | 0.00 | 0.00 | 77 | 1021.3 |
| 20260902073010 | 25 | 268 | 0.0 | 0.0 | 0.00 | 0.00 | 0.00 | 77 | 1021.3 |
| 20260902072910 | 25 | 268 | 0.0 | 0.0 | 0.00 | 0.00 | 0.00 | 77 | 1021.2 |
| 20260902072808 | 25 | 268 | 0.0 | 0.0 | 0.00 | 0.00 | 0.00 | 77 | 1021.3 |
| 20260902072708 | 25 | 268 | 0.0 | 0.0 | 0.00 | 0.00 | 0.00 | 77 | 1021.3 |
| 20260902072610 | 25 | 268 | 0.0 | 0.0 | 0.00 | 0.00 | 0.00 | 77 | 1021.2 |
| 20260902072510 | 25 | 268 | 0.0 | 0.0 | 0.00 | 0.00 | 0.00 | 77 | 1021.2 |
| 20260902072410 | 25 | 268 | 0.0 | 0.0 | 0.00 | 0.00 | 0.00 | 77 | 1021.3 |
| 20260902072310 | 25 | 268 | 0.0 | 0.0 | 0.00 | 0.00 | 0.00 | 77 | 1021.2 |
| 20260902072210 | 25 | 268 | 0.0 | 0.0 | 0.00 | 0.00 | 0.00 | 77 | 1021.3 |
| 20260902072108 | 25 | 268 | 0.0 | 0.0 | 0.00 | 0.00 | 0.00 | 77 | 1021.3 |
| 20260902072010 | 25 | 268 | 0.0 | 0.0 | 0.00 | 0.00 | 0.00 | 77 | 1021.2 |
| 20260902071909 | 25 | 268 | 0.0 | 0.0 | 0.00 | 0.00 | 0.00 | 77 | 1021.2 |
| 20260902071808 | 25 | 268 | 0.0 | 0.0 | 0.00 | 0.00 | 0.00 | 77 | 1021.3 |
| 20260902071708 | 25 | 268 | 0.0 | 0.0 | 0.00 | 0.00 | 0.00 | 77 | 1021.2 |
| 20260902071610 | 25 | 267 | 0.0 | 0.0 | 0.00 | 0.00 | 0.00 | 77 | 1021.3 |
| 20260902071508 | 25 | 267 | 0.0 | 0.0 | 0.00 | 0.00 | 0.00 | 78 | 1021.3 |
| 20260902071409 | 25 | 267 | 0.0 | 0.0 | 0.00 | 0.00 | 0.00 | 78 | 1021.2 |
| 20260902071308 | 25 | 267 | 0.0 | 0.0 | 0.00 | 0.00 | 0.00 | 78 | 1021.2 |
| 20260902071210 | 25 | 267 | 0.0 | 0.0 | 0.00 | 0.00 | 0.00 | 78 | 1021.3 |
| 20260902071109 | 25 | 267 | 0.0 | 0.0 | 0.00 | 0.00 | 0.00 | 78 | 1021.2 |
| 20260902071010 | 25 | 267 | 0.0 | 0.0 | 0.00 | 0.00 | 0.00 | 78 | 1021.3 |
| 20260902070909 | 25 | 267 | 0.0 | 0.0 | 0.00 | 0.00 | 0.00 | 78 | 1021.3 |
| 20260902070808 | 25 | 267 | 0.0 | 0.0 | 0.00 | 0.00 | 0.00 | 78 | 1021.2 |
| 20260902070709 | 25 | 267 | 0.0 | 0.0 | 0.00 | 0.00 | 0.00 | 78 | 1021.3 |
| 20260902070604 | 25 | 267 | 0.0 | 0.0 | 0.00 | 0.00 | 0.00 | 78 | 1021.2 |
| 20260902070505 | 25 | 267 | 0.0 | 0.0 | 0.00 | 0.00 | 0.00 | 78 | 1021.2 |
| 20260902070405 | 25 | 267 | 0.0 | 0.0 | 0.00 | 0.00 | 0.00 | 78 | 1021.2 |
| 20260902070305 | 25 | 267 | 0.0 | 0.0 | 0.00 | 0.00 | 0.00 | 78 | 1021.2 |
| 20260902070204 | 25 | 267 | 0.0 | 0.0 | 0.00 | 0.00 | 0.00 | 78 | 1021.2 |
| 20260902070105 | 25 | 267 | 0.0 | 0.0 | 0.00 | 0.00 | 0.00 | 78 | 1021.2 |
| 20260902070007 | 25 | 267 | 0.0 | 0.0 | 0.00 | 0.00 | 0.00 | 78 | 1021.2 |
| 20260902065904 | 25 | 267 | 0.0 | 0.0 | 0.00 | 0.00 | 0.00 | 78 | 1021.2 |
| 20260902065804 | 25 | 267 | 0.0 | 0.0 | 0.00 | 0.00 | 0.00 | 78 | 1021.2 |
| 20260902065705 | 25 | 267 | 0.0 | 0.0 | 0.00 | 0.00 | 0.00 | 78 | 1021.1 |
| 20260902065604 | 25 | 267 | 0.0 | 0.0 | 0.00 | 0.00 | 0.00 | 78 | 1021.2 |
| 20260902065504 | 25 | 267 | 0.0 | 0.0 | 0.00 | 0.00 | 0.00 | 79 | 1021.2 |
| 20260902065404 | 25 | 267 | 0.0 | 0.0 | 0.00 | 0.00 | 0.00 | 79 | 1021.2 |
| 20260902065306 | 25 | 267 | 0.0 | 0.0 | 0.00 | 0.00 | 0.00 | 79 | 1021.1 |
| 20260902065204 | 25 | 267 | 0.0 | 0.0 | 0.00 | 0.00 | 0.00 | 79 | 1021.1 |
| 20260902065104 | 25 | 267 | 0.0 | 0.0 | 0.00 | 0.00 | 0.00 | 79 | 1021.1 |
| 20260902065005 | 25 | 267 | 0.0 | 0.0 | 0.00 | 0.00 | 0.00 | 79 | 1021.2 |
| 20260902064904 | 25 | 267 | 0.0 | 0.0 | 0.00 | 0.00 | 0.00 | 79 | 1021.1 |
| 20260902064805 | 25 | 267 | 0.0 | 0.0 | 0.00 | 0.00 | 0.00 | 79 | 1021.2 |
| 20260902064705 | 25 | 267 | 0.0 | 0.0 | 0.00 | 0.00 | 0.00 | 79 | 1021.2 |
| 20260902064604 | 25 | 267 | 0.0 | 0.0 | 0.00 | 0.00 | 0.00 | 79 | 1021.2 |
| 20260902064506 | 25 | 267 | 0.0 | 0.0 | 0.00 | 0.00 | 0.00 | 79 | 1021.1 |
| 20260902064404 | 25 | 267 | 0.0 | 0.0 | 0.00 | 0.00 | 0.00 | 79 | 1021.1 |
| 20260902064304 | 25 | 267 | 0.0 | 0.0 | 0.00 | 0.00 | 0.00 | 79 | 1021.2 |
| 20260902064204 | 25 | 267 | 0.0 | 0.0 | 0.00 | 0.00 | 0.00 | 79 | 1021.2 |
| 20260902064106 | 25 | 267 | 0.0 | 0.0 | 0.00 | 0.00 | 0.00 | 79 | 1021.1 |
| 20260902064005 | 25 | 267 | 0.0 | 0.0 | 0.00 | 0.00 | 0.00 | 79 | 1021.1 |
| 20260902063905 | 25 | 267 | 0.0 | 0.0 | 0.00 | 0.00 | 0.00 | 79 | 1021.1 |
| 20260902063806 | 25 | 267 | 0.0 | 0.0 | 0.00 | 0.00 | 0.00 | 79 | 1021.1 |
| 20260902063704 | 25 | 267 | 0.0 | 0.0 | 0.00 | 0.00 | 0.00 | 79 | 1021.1 |
| 20260902063604 | 25 | 267 | 0.0 | 0.0 | 0.00 | 0.00 | 0.00 | 79 | 1021.2 |
| 20260902063505 | 25 | 267 | 0.0 | 0.0 | 0.00 | 0.00 | 0.00 | 79 | 1021.1 |
| 20260902063406 | 25 | 267 | 0.0 | 0.0 | 0.00 | 0.00 | 0.00 | 79 | 1021.1 |
| 20260902063259 | 25 | 267 | 0.0 | 0.0 | 0.00 | 0.00 | 0.00 | 79 | 1021.1 |
| 20260902063202 | 25 | 267 | 0.0 | 0.0 | 0.00 | 0.00 | 0.00 | 79 | 1021.2 |
| 20260902063100 | 25 | 267 | 0.0 | 0.0 | 0.00 | 0.00 | 0.00 | 79 | 1021.1 |
| 20260902063001 | 25 | 267 | 0.0 | 0.0 | 0.00 | 0.00 | 0.00 | 79 | 1021.2 |
| 20260902062902 | 25 | 267 | 0.0 | 0.0 | 0.00 | 0.00 | 0.00 | 79 | 1021.1 |
| 20260902062802 | 25 | 267 | 0.0 | 0.0 | 0.00 | 0.00 | 0.00 | 79 | 1021.1 |
| 20260902062700 | 25 | 267 | 0.0 | 0.0 | 0.00 | 0.00 | 0.00 | 79 | 1021.2 |
| 20260902062602 | 25 | 267 | 0.0 | 0.0 | 0.00 | 0.00 | 0.00 | 79 | 1021.1 |
| 20260902062500 | 25 | 267 | 0.0 | 0.0 | 0.00 | 0.00 | 0.00 | 79 | 1021.2 |
| 20260902062401 | 25 | 267 | 0.0 | 0.0 | 0.00 | 0.00 | 0.00 | 79 | 1021.1 |
| 20260902062301 | 25 | 267 | 0.0 | 0.0 | 0.00 | 0.00 | 0.00 | 79 | 1021.2 |
| 20260902062202 | 25 | 267 | 0.0 | 0.0 | 0.00 | 0.00 | 0.00 | 79 | 1021.1 |
| 20260902062101 | 25 | 267 | 0.0 | 0.0 | 0.00 | 0.00 | 0.00 | 79 | 1021.2 |
| 20260902062002 | 25 | 267 | 0.0 | 0.0 | 0.00 | 0.00 | 0.00 | 79 | 1021.1 |
| 20260902061901 | 25 | 267 | 0.0 | 0.0 | 0.00 | 0.00 | 0.00 | 79 | 1021.2 |
| 20260902061802 | 25 | 267 | 0.0 | 0.0 | 0.00 | 0.00 | 0.00 | 79 | 1021.2 |
| 20260902061700 | 25 | 267 | 0.0 | 0.0 | 0.00 | 0.00 | 0.00 | 79 | 1021.2 |
| 20260902061602 | 25 | 267 | 0.0 | 0.0 | 0.00 | 0.00 | 0.00 | 79 | 1021.2 |
| 20260902061500 | 25 | 267 | 0.0 | 0.0 | 0.00 | 0.00 | 0.00 | 79 | 1021.1 |
| 20260902061401 | 25 | 267 | 0.0 | 0.0 | 0.00 | 0.00 | 0.00 | 79 | 1021.2 |
| 20260902061300 | 25 | 267 | 0.0 | 0.0 | 0.00 | 0.00 | 0.00 | 79 | 1021.2 |
| 20260902061201 | 25 | 267 | 0.0 | 0.0 | 0.00 | 0.00 | 0.00 | 79 | 1021.3 |
| 20260902061100 | 25 | 267 | 0.0 | 0.0 | 0.00 | 0.00 | 0.00 | 79 | 1021.2 |
| 20260902061000 | 25 | 267 | 0.0 | 0.0 | 0.00 | 0.00 | 0.00 | 79 | 1021.3 |
| 20260902060900 | 25 | 267 | 0.0 | 0.0 | 0.00 | 0.00 | 0.00 | 79 | 1021.3 |
| 20260902060802 | 25 | 267 | 0.0 | 0.0 | 0.00 | 0.00 | 0.00 | 79 | 1021.3 |
| 20260902060654 | 25 | 267 | 0.0 | 0.0 | 0.00 | 0.00 | 0.00 | 79 | 1021.3 |
| 20260902060556 | 25 | 267 | 0.0 | 0.0 | 0.00 | 0.00 | 0.00 | 79 | 1021.3 |
| 20260902060454 | 25 | 267 | 0.0 | 0.0 | 0.00 | 0.00 | 0.00 | 79 | 1021.2 |
| 20260902060352 | 25 | 267 | 0.0 | 0.0 | 0.00 | 0.00 | 0.00 | 79 | 1021.2 |
| 20260902060250 | 25 | 267 | 0.0 | 0.0 | 0.00 | 0.00 | 0.00 | 79 | 1021.3 |
| 20260902060148 | 25 | 267 | 0.0 | 0.0 | 0.00 | 0.00 | 0.00 | 79 | 1021.2 |
| 20260902060047 | 25 | 266 | 0.0 | 0.0 | 0.00 | 0.00 | 0.00 | 79 | 1021.3 |
| 20260902055946 | 25 | 267 | 0.0 | 0.0 | 0.00 | 0.00 | 0.00 | 79 | 1021.3 |
| 20260902055846 | 25 | 267 | 0.0 | 0.0 | 0.00 | 0.00 | 0.00 | 79 | 1021.3 |
| 20260902055743 | 25 | 266 | 0.0 | 0.0 | 0.00 | 0.00 | 0.00 | 79 | 1021.3 |
| 20260902055641 | 25 | 266 | 0.0 | 0.0 | 0.00 | 0.00 | 0.00 | 79 | 1021.3 |
| 20260902055540 | 25 | 267 | 0.0 | 0.0 | 0.00 | 0.00 | 0.00 | 79 | 1021.3 |
| 20260902055440 | 25 | 266 | 0.0 | 0.0 | 0.00 | 0.00 | 0.00 | 79 | 1021.3 |
| 20260902055340 | 25 | 266 | 0.0 | 0.0 | 0.00 | 0.00 | 0.00 | 79 | 1021.3 |
| 20260902055237 | 25 | 267 | 0.0 | 0.0 | 0.00 | 0.00 | 0.00 | 79 | 1021.3 |
| 20260902055128 | 25 | 267 | 0.0 | 0.0 | 0.00 | 0.00 | 0.00 | 79 | 1021.2 |
| 20260902055027 | 25 | 267 | 0.0 | 0.0 | 0.00 | 0.00 | 0.00 | 79 | 1021.3 |
| 20260902054928 | 25 | 267 | 0.0 | 0.0 | 0.00 | 0.00 | 0.00 | 79 | 1021.3 |
| 20260902054826 | 25 | 267 | 0.0 | 0.0 | 0.00 | 0.00 | 0.00 | 78 | 1021.3 |
| 20260902054727 | 25 | 267 | 0.0 | 0.0 | 0.00 | 0.00 | 0.00 | 79 | 1021.2 |
| 20260902054628 | 25 | 302 | 0.0 | 0.0 | 0.00 | 0.00 | 0.00 | 79 | 1021.3 |
| 20260902054525 | 25 | 302 | 0.0 | 0.0 | 0.00 | 0.00 | 0.00 | 79 | 1021.2 |
| 20260902054426 | 25 | 305 | 0.0 | 0.0 | 0.00 | 0.00 | 0.00 | 79 | 1021.2 |
| 20260902054323 | 25 | 305 | 0.0 | 0.0 | 0.00 | 0.00 | 0.00 | 79 | 1021.2 |
| 20260902054220 | 25 | 306 | 0.0 | 0.0 | 0.00 | 0.00 | 0.00 | 79 | 1021.2 |
| 20260902054120 | 25 | 305 | 0.0 | 0.0 | 0.00 | 0.00 | 0.00 | 79 | 1021.2 |
| 20260902054020 | 25 | 305 | 0.0 | 0.0 | 0.00 | 0.00 | 0.00 | 78 | 1021.2 |
| 20260902053916 | 25 | 306 | 0.0 | 0.0 | 0.00 | 0.00 | 0.00 | 78 | 1021.2 |
| 20260902053817 | 25 | 306 | 0.0 | 0.0 | 0.00 | 0.00 | 0.00 | 78 | 1021.2 |
| 20260902053714 | 25 | 306 | 0.0 | 0.0 | 0.00 | 0.00 | 0.00 | 79 | 1021.2 |
| 20260902053604 | 25 | 306 | 0.0 | 0.0 | 0.00 | 0.00 | 0.00 | 78 | 1021.2 |
| 20260902053506 | 25 | 306 | 0.0 | 0.0 | 0.00 | 0.00 | 0.00 | 78 | 1021.2 |
| 20260902053405 | 25 | 306 | 0.0 | 0.0 | 0.00 | 0.00 | 0.00 | 78 | 1021.2 |
| 20260902053306 | 25 | 306 | 0.0 | 0.0 | 0.00 | 0.00 | 0.00 | 78 | 1021.2 |
| 20260902053204 | 25 | 306 | 0.0 | 0.0 | 0.00 | 0.00 | 0.00 | 78 | 1021.2 |
| 20260902053100 | 25 | 306 | 0.0 | 0.0 | 0.00 | 0.00 | 0.00 | 78 | 1021.1 |
| 20260902052958 | 25 | 306 | 0.0 | 0.0 | 0.00 | 0.00 | 0.00 | 78 | 1021.2 |
| 20260902052859 | 25 | 306 | 0.0 | 0.0 | 0.00 | 0.00 | 0.00 | 78 | 1021.2 |
| 20260902052758 | 25 | 306 | 0.0 | 0.0 | 0.00 | 0.00 | 0.00 | 78 | 1021.2 |
| 20260902052659 | 25 | 306 | 0.0 | 0.0 | 0.00 | 0.00 | 0.00 | 78 | 1021.2 |
| 20260902052558 | 25 | 306 | 0.0 | 0.0 | 0.00 | 0.00 | 0.00 | 78 | 1021.1 |
| 20260902052458 | 25 | 306 | 0.0 | 0.0 | 0.00 | 0.00 | 0.00 | 78 | 1021.2 |
| 20260902052355 | 25 | 306 | 0.0 | 0.0 | 0.00 | 0.00 | 0.00 | 78 | 1021.2 |
| 20260902052256 | 25 | 306 | 0.0 | 0.0 | 0.00 | 0.00 | 0.00 | 78 | 1021.3 |
| 20260902052152 | 25 | 306 | 0.0 | 0.0 | 0.00 | 0.00 | 0.00 | 78 | 1021.2 |
| 20260902052048 | 25 | 306 | 0.0 | 0.0 | 0.00 | 0.00 | 0.00 | 78 | 1021.2 |
| 20260902051947 | 25 | 306 | 0.0 | 0.0 | 0.00 | 0.00 | 0.00 | 78 | 1021.1 |
| 20260902051846 | 25 | 306 | 0.0 | 0.0 | 0.00 | 0.00 | 0.00 | 78 | 1021.2 |
| 20260902051744 | 25 | 306 | 0.0 | 0.0 | 0.00 | 0.00 | 0.00 | 78 | 1021.1 |
| 20260902051644 | 25 | 306 | 0.0 | 0.0 | 0.00 | 0.00 | 0.00 | 78 | 1021.2 |
| 20260902051545 | 25 | 306 | 0.0 | 0.0 | 0.00 | 0.00 | 0.00 | 78 | 1021.2 |
| 20260902051444 | 25 | 306 | 0.0 | 0.0 | 0.00 | 0.00 | 0.00 | 78 | 1021.2 |
| 20260902051344 | 25 | 306 | 0.0 | 0.0 | 0.00 | 0.00 | 0.00 | 78 | 1021.2 |
| 20260902051242 | 25 | 307 | 0.0 | 0.0 | 0.00 | 0.00 | 0.00 | 78 | 1021.1 |
| 20260902051143 | 25 | 307 | 0.0 | 0.0 | 0.00 | 0.00 | 0.00 | 78 | 1021.2 |
| 20260902051040 | 25 | 307 | 0.0 | 0.0 | 0.00 | 0.00 | 0.00 | 78 | 1021.2 |
| 20260902050939 | 25 | 307 | 0.0 | 0.0 | 0.00 | 0.00 | 0.00 | 77 | 1021.1 |
| 20260902050836 | 25 | 307 | 0.0 | 0.0 | 0.00 | 0.00 | 0.00 | 78 | 1021.2 |
| 20260902050736 | 25 | 305 | 0.0 | 0.0 | 0.00 | 0.00 | 0.00 | 78 | 1021.2 |
| 20260902050637 | 25 | 283 | 0.0 | 0.0 | 0.00 | 0.00 | 0.00 | 78 | 1021.1 |
| 20260902050538 | 25 | 283 | 0.0 | 0.0 | 0.00 | 0.00 | 0.00 | 77 | 1021.1 |
| 20260902050437 | 25 | 282 | 0.0 | 0.0 | 0.00 | 0.00 | 0.00 | 77 | 1021.1 |
| 20260902050335 | 25 | 283 | 0.0 | 0.0 | 0.00 | 0.00 | 0.00 | 78 | 1021.1 |
| 20260902050234 | 25 | 283 | 0.0 | 0.0 | 0.00 | 0.00 | 0.00 | 77 | 1021.2 |
| 20260902050135 | 25 | 284 | 0.0 | 0.0 | 0.00 | 0.00 | 0.00 | 77 | 1021.1 |
| 20260902050033 | 25 | 284 | 0.0 | 0.0 | 0.00 | 0.00 | 0.00 | 77 | 1021.2 |
| 20260902045931 | 25 | 284 | 0.0 | 0.0 | 0.00 | 0.00 | 0.00 | 77 | 1021.2 |
| 20260902045830 | 25 | 284 | 0.0 | 0.0 | 0.00 | 0.00 | 0.00 | 77 | 1021.2 |
| 20260902045729 | 25 | 284 | 0.0 | 0.0 | 0.00 | 0.00 | 0.00 | 77 | 1021.1 |
| 20260902045627 | 25 | 284 | 0.0 | 0.0 | 0.00 | 0.00 | 0.00 | 77 | 1021.2 |
| 20260902045526 | 25 | 284 | 0.0 | 0.0 | 0.00 | 0.00 | 0.00 | 77 | 1021.1 |
| 20260902045425 | 25 | 284 | 0.0 | 0.0 | 0.00 | 0.00 | 0.00 | 77 | 1021.1 |
| 20260902045323 | 26 | 284 | 0.0 | 0.0 | 0.00 | 0.00 | 0.00 | 77 | 1021.1 |
| 20260902045224 | 26 | 284 | 0.0 | 0.0 | 0.00 | 0.00 | 0.00 | 77 | 1021.1 |
| 20260902045123 | 26 | 284 | 0.0 | 0.0 | 0.00 | 0.00 | 0.00 | 77 | 1021.1 |
| 20260902045022 | 26 | 284 | 0.0 | 0.0 | 0.00 | 0.00 | 0.00 | 77 | 1021.1 |
| 20260902044921 | 26 | 284 | 0.0 | 0.0 | 0.00 | 0.00 | 0.00 | 77 | 1021.1 |
| 20260902044820 | 26 | 284 | 0.0 | 0.0 | 0.00 | 0.00 | 0.00 | 77 | 1021.2 |
| 20260902044720 | 26 | 284 | 0.0 | 0.0 | 0.00 | 0.00 | 0.00 | 77 | 1021.1 |
| 20260902044617 | 26 | 283 | 0.0 | 0.0 | 0.00 | 0.00 | 0.00 | 77 | 1021.2 |
| 20260902044518 | 26 | 282 | 0.0 | 0.0 | 0.00 | 0.00 | 0.00 | 77 | 1021.2 |
| 20260902044415 | 26 | 282 | 0.0 | 0.0 | 0.00 | 0.00 | 0.00 | 77 | 1021.2 |
| 20260902044315 | 26 | 282 | 0.0 | 0.0 | 0.00 | 0.00 | 0.00 | 77 | 1021.1 |
| 20260902044213 | 26 | 282 | 0.0 | 0.0 | 0.00 | 0.00 | 0.00 | 77 | 1021.2 |
| 20260902044112 | 26 | 274 | 0.0 | 0.0 | 0.00 | 0.00 | 0.00 | 77 | 1021.2 |
| 20260902044012 | 26 | 273 | 0.0 | 0.0 | 0.00 | 0.00 | 0.00 | 77 | 1021.2 |
| 20260902043909 | 26 | 272 | 0.0 | 0.0 | 0.00 | 0.00 | 0.00 | 77 | 1021.2 |
| 20260902043803 | 26 | 272 | 0.0 | 0.0 | 0.00 | 0.00 | 0.00 | 77 | 1021.1 |
| 20260902043702 | 26 | 270 | 0.0 | 0.0 | 0.00 | 0.00 | 0.00 | 77 | 1021.2 |
| 20260902043602 | 26 | 270 | 0.0 | 0.0 | 0.00 | 0.00 | 0.00 | 77 | 1021.2 |
| 20260902043502 | 26 | 270 | 0.0 | 0.0 | 0.00 | 0.00 | 0.00 | 77 | 1021.1 |
| 20260902043358 | 26 | 270 | 0.0 | 0.0 | 0.00 | 0.00 | 0.00 | 77 | 1021.1 |
| 20260902043254 | 26 | 269 | 0.0 | 0.0 | 0.00 | 0.00 | 0.00 | 77 | 1021.1 |
| 20260902043154 | 26 | 269 | 0.0 | 0.0 | 0.00 | 0.00 | 0.00 | 77 | 1021.1 |
| 20260902043053 | 26 | 269 | 0.0 | 0.0 | 0.00 | 0.00 | 0.00 | 77 | 1021.2 |
| 20260902042952 | 26 | 269 | 0.0 | 0.0 | 0.00 | 0.00 | 0.00 | 76 | 1021.2 |
| 20260902042852 | 26 | 269 | 0.0 | 0.0 | 0.00 | 0.00 | 0.00 | 76 | 1021.1 |
| 20260902042748 | 26 | 269 | 0.0 | 0.0 | 0.00 | 0.00 | 0.00 | 76 | 1021.1 |
| 20260902042648 | 26 | 269 | 0.0 | 0.0 | 0.00 | 0.00 | 0.00 | 76 | 1021.1 |
| 20260902042546 | 26 | 269 | 0.0 | 0.0 | 0.00 | 0.00 | 0.00 | 76 | 1021.2 |
| 20260902042447 | 26 | 270 | 0.0 | 0.0 | 0.00 | 0.00 | 0.00 | 76 | 1021.2 |
| 20260902042347 | 26 | 269 | 0.0 | 0.0 | 0.00 | 0.00 | 0.00 | 76 | 1021.2 |
| 20260902042242 | 26 | 269 | 0.0 | 0.0 | 0.00 | 0.00 | 0.00 | 76 | 1021.2 |
| 20260902042141 | 26 | 269 | 0.0 | 0.0 | 0.00 | 0.00 | 0.00 | 76 | 1021.2 |
| 20260902042038 | 26 | 269 | 0.0 | 0.0 | 0.00 | 0.00 | 0.00 | 76 | 1021.2 |
| 20260902041939 | 26 | 269 | 0.0 | 0.0 | 0.00 | 0.00 | 0.00 | 76 | 1021.2 |
| 20260902041837 | 26 | 269 | 0.0 | 0.0 | 0.00 | 0.00 | 0.00 | 76 | 1021.2 |
| 20260902041736 | 26 | 269 | 0.0 | 0.0 | 0.00 | 0.00 | 0.00 | 76 | 1021.1 |
| 20260902041635 | 26 | 270 | 0.0 | 0.0 | 0.00 | 0.00 | 0.00 | 76 | 1021.3 |
| 20260902041535 | 26 | 270 | 0.0 | 0.0 | 0.00 | 0.00 | 0.00 | 76 | 1021.2 |
| 20260902041434 | 26 | 270 | 0.0 | 0.0 | 0.00 | 0.00 | 0.00 | 76 | 1021.3 |
| 20260902041331 | 26 | 270 | 0.0 | 0.0 | 0.00 | 0.00 | 0.00 | 76 | 1021.2 |
| 20260902041231 | 26 | 279 | 0.0 | 0.0 | 0.00 | 0.00 | 0.00 | 76 | 1021.2 |
| 20260902041128 | 26 | 276 | 0.0 | 0.0 | 0.00 | 0.00 | 0.00 | 76 | 1021.2 |
| 20260902041029 | 26 | 283 | 0.0 | 0.0 | 0.00 | 0.00 | 0.00 | 76 | 1021.2 |
| 20260902040927 | 26 | 283 | 0.0 | 0.0 | 0.00 | 0.00 | 0.00 | 76 | 1021.2 |
| 20260902040825 | 26 | 283 | 0.0 | 0.0 | 0.00 | 0.00 | 0.00 | 76 | 1021.2 |
| 20260902040726 | 26 | 283 | 0.0 | 0.0 | 0.00 | 0.00 | 0.00 | 76 | 1021.1 |
| 20260902040628 | 26 | 286 | 0.0 | 0.0 | 0.00 | 0.00 | 0.00 | 76 | 1021.1 |
| 20260902040526 | 26 | 286 | 0.0 | 0.0 | 0.00 | 0.00 | 0.00 | 76 | 1021.1 |
| 20260902040425 | 26 | 288 | 0.0 | 0.0 | 0.00 | 0.00 | 0.00 | 76 | 1021.1 |
| 20260902040322 | 26 | 288 | 0.0 | 0.0 | 0.00 | 0.00 | 0.00 | 76 | 1021.1 |
| 20260902040222 | 26 | 292 | 0.0 | 0.0 | 0.00 | 0.00 | 0.00 | 76 | 1021.2 |
| 20260902040123 | 26 | 291 | 0.0 | 0.0 | 0.00 | 0.00 | 0.00 | 76 | 1021.2 |
| 20260902040022 | 26 | 287 | 0.0 | 0.0 | 0.00 | 0.00 | 0.00 | 76 | 1021.2 |
| 20260902035920 | 26 | 288 | 0.0 | 0.0 | 0.00 | 0.00 | 0.00 | 76 | 1021.2 |
| 20260902035822 | 26 | 282 | 0.0 | 0.0 | 0.00 | 0.00 | 0.00 | 76 | 1021.2 |
| 20260902035721 | 26 | 282 | 0.0 | 0.0 | 0.00 | 0.00 | 0.00 | 76 | 1021.2 |
| 20260902035622 | 26 | 282 | 0.0 | 0.0 | 0.00 | 0.00 | 0.00 | 76 | 1021.2 |
| 20260902035521 | 26 | 282 | 0.0 | 0.0 | 0.00 | 0.00 | 0.00 | 76 | 1021.2 |
| 20260902035421 | 26 | 281 | 0.0 | 0.0 | 0.00 | 0.00 | 0.00 | 76 | 1021.3 |
| 20260902035320 | 26 | 281 | 0.0 | 0.0 | 0.00 | 0.00 | 0.00 | 76 | 1021.3 |
| 20260902035222 | 26 | 281 | 0.0 | 0.0 | 0.00 | 0.00 | 0.00 | 76 | 1021.3 |
| 20260902035120 | 26 | 281 | 0.0 | 0.0 | 0.00 | 0.00 | 0.00 | 76 | 1021.3 |
| 20260902035021 | 26 | 277 | 0.0 | 0.0 | 0.00 | 0.00 | 0.00 | 76 | 1021.3 |
| 20260902034922 | 26 | 276 | 0.0 | 0.0 | 0.00 | 0.00 | 0.00 | 76 | 1021.4 |
| 20260902034816 | 26 | 275 | 0.0 | 0.0 | 0.00 | 0.00 | 0.00 | 76 | 1021.2 |
| 20260902034716 | 26 | 273 | 0.0 | 0.0 | 0.00 | 0.00 | 0.00 | 76 | 1021.3 |
| 20260902034617 | 26 | 271 | 0.0 | 0.0 | 0.00 | 0.00 | 0.00 | 76 | 1021.4 |
| 20260902034516 | 26 | 271 | 0.0 | 0.0 | 0.00 | 0.00 | 0.00 | 76 | 1021.3 |
| 20260902034417 | 26 | 271 | 0.0 | 0.0 | 0.00 | 0.00 | 0.00 | 76 | 1021.2 |
| 20260902034316 | 26 | 271 | 0.0 | 0.0 | 0.00 | 0.00 | 0.00 | 76 | 1021.3 |
| 20260902034216 | 26 | 271 | 0.0 | 0.0 | 0.00 | 0.00 | 0.00 | 76 | 1021.2 |
| 20260902034117 | 26 | 269 | 0.0 | 0.0 | 0.00 | 0.00 | 0.00 | 76 | 1021.2 |
| 20260902034016 | 26 | 279 | 0.0 | 0.0 | 0.00 | 0.00 | 0.00 | 76 | 1021.2 |
| 20260902033916 | 26 | 270 | 0.0 | 0.0 | 0.00 | 0.00 | 0.00 | 76 | 1021.3 |
| 20260902033816 | 26 | 269 | 0.0 | 0.0 | 0.00 | 0.00 | 0.00 | 76 | 1021.1 |
| 20260902033716 | 26 | 269 | 0.0 | 0.0 | 0.00 | 0.00 | 0.00 | 76 | 1021.2 |
| 20260902033616 | 26 | 269 | 0.0 | 0.0 | 0.00 | 0.00 | 0.00 | 76 | 1021.2 |
| 20260902033518 | 26 | 270 | 0.0 | 0.0 | 0.00 | 0.00 | 0.00 | 76 | 1021.2 |
| 20260902033417 | 26 | 270 | 0.0 | 0.0 | 0.00 | 0.00 | 0.00 | 76 | 1021.1 |
| 20260902033318 | 26 | 270 | 0.0 | 0.0 | 0.00 | 0.00 | 0.00 | 76 | 1021.2 |
| 20260902033217 | 26 | 270 | 0.0 | 0.0 | 0.00 | 0.00 | 0.00 | 76 | 1021.2 |
| 20260902033114 | 26 | 271 | 0.0 | 0.0 | 0.00 | 0.00 | 0.00 | 76 | 1021.2 |
| 20260902033017 | 26 | 271 | 0.0 | 0.0 | 0.00 | 0.00 | 0.00 | 76 | 1021.1 |
| 20260902032915 | 26 | 271 | 0.0 | 0.0 | 0.00 | 0.00 | 0.00 | 76 | 1021.1 |
| 20260902032814 | 26 | 277 | 0.0 | 0.0 | 0.00 | 0.00 | 0.00 | 76 | 1021.3 |
| 20260902032708 | 26 | 277 | 0.0 | 0.0 | 0.00 | 0.00 | 0.00 | 76 | 1021.3 |
| 20260902032609 | 26 | 277 | 0.0 | 0.0 | 0.00 | 0.00 | 0.00 | 76 | 1021.2 |
| 20260902032509 | 26 | 259 | 0.0 | 0.0 | 0.00 | 0.00 | 0.00 | 76 | 1021.3 |
| 20260902032403 | 26 | 255 | 0.0 | 0.0 | 0.00 | 0.00 | 0.00 | 76 | 1021.3 |
| 20260902032305 | 26 | 269 | 0.0 | 0.0 | 0.00 | 0.00 | 0.00 | 76 | 1021.3 |
| 20260902032202 | 26 | 269 | 0.0 | 0.0 | 0.00 | 0.00 | 0.00 | 76 | 1021.3 |
| 20260902032102 | 26 | 269 | 0.0 | 0.0 | 0.00 | 0.00 | 0.00 | 76 | 1021.2 |
| 20260902032004 | 26 | 267 | 0.0 | 0.0 | 0.00 | 0.00 | 0.00 | 76 | 1021.2 |
| 20260902031858 | 26 | 267 | 0.0 | 0.0 | 0.00 | 0.00 | 0.00 | 76 | 1021.2 |
| 20260902031756 | 26 | 266 | 0.0 | 0.0 | 0.00 | 0.00 | 0.00 | 76 | 1021.2 |
| 20260902031657 | 26 | 267 | 0.0 | 0.0 | 0.00 | 0.00 | 0.00 | 76 | 1021.3 |
| 20260902031555 | 26 | 266 | 0.0 | 0.0 | 0.00 | 0.00 | 0.00 | 77 | 1021.2 |
| 20260902031453 | 26 | 267 | 0.0 | 0.0 | 0.00 | 0.00 | 0.00 | 77 | 1021.2 |
| 20260902031348 | 26 | 267 | 0.0 | 0.0 | 0.00 | 0.00 | 0.00 | 77 | 1021.2 |
| 20260902031247 | 26 | 267 | 0.0 | 0.0 | 0.00 | 0.00 | 0.00 | 77 | 1021.2 |
| 20260902031146 | 26 | 267 | 0.0 | 0.0 | 0.00 | 0.00 | 0.00 | 77 | 1021.2 |
| 20260902031047 | 26 | 268 | 0.0 | 0.0 | 0.00 | 0.00 | 0.00 | 76 | 1021.3 |
| 20260902030944 | 26 | 265 | 0.0 | 0.0 | 0.00 | 0.00 | 0.00 | 77 | 1021.3 |
| 20260902030845 | 26 | 264 | 0.0 | 0.0 | 0.00 | 0.00 | 0.00 | 77 | 1021.4 |
| 20260902030742 | 26 | 254 | 0.0 | 0.0 | 0.00 | 0.00 | 0.00 | 77 | 1021.4 |
| 20260902030644 | 26 | 254 | 0.0 | 0.0 | 0.00 | 0.00 | 0.00 | 77 | 1021.3 |
| 20260902030542 | 26 | 254 | 0.0 | 0.0 | 0.00 | 0.00 | 0.00 | 77 | 1021.4 |
| 20260902030439 | 26 | 254 | 0.0 | 0.0 | 0.00 | 0.00 | 0.00 | 77 | 1021.3 |
| 20260902030328 | 26 | 252 | 0.0 | 0.0 | 0.00 | 0.00 | 0.00 | 77 | 1021.3 |
| 20260902030229 | 26 | 252 | 0.0 | 0.0 | 0.00 | 0.00 | 0.00 | 77 | 1021.4 |
| 20260902030129 | 26 | 252 | 0.0 | 0.0 | 0.00 | 0.00 | 0.00 | 78 | 1021.5 |
| 20260902030029 | 26 | 226 | 0.0 | 0.0 | 0.00 | 0.00 | 0.00 | 77 | 1021.4 |
| 20260902025929 | 26 | 226 | 0.0 | 0.0 | 0.00 | 0.00 | 0.00 | 77 | 1021.4 |
| 20260902025827 | 26 | 225 | 0.0 | 0.0 | 0.00 | 0.00 | 0.00 | 77 | 1021.4 |
| 20260902025726 | 26 | 227 | 0.0 | 0.0 | 0.00 | 0.00 | 0.00 | 78 | 1021.4 |
| 20260902025626 | 26 | 281 | 0.0 | 0.0 | 0.00 | 0.00 | 0.00 | 77 | 1021.4 |
| 20260902025525 | 26 | 281 | 0.0 | 0.0 | 0.00 | 0.00 | 0.00 | 77 | 1021.4 |
| 20260902025423 | 26 | 281 | 0.0 | 0.0 | 0.00 | 0.00 | 0.00 | 77 | 1021.4 |
| 20260902025323 | 26 | 281 | 0.0 | 0.0 | 0.00 | 0.00 | 0.00 | 77 | 1021.3 |
| 20260902025220 | 26 | 269 | 0.0 | 0.0 | 0.00 | 0.00 | 0.00 | 77 | 1021.4 |
| 20260902025121 | 26 | 268 | 0.0 | 0.0 | 0.00 | 0.00 | 0.00 | 77 | 1021.4 |
| 20260902025018 | 26 | 268 | 0.0 | 0.0 | 0.00 | 0.00 | 0.00 | 77 | 1021.4 |
| 20260902024917 | 26 | 268 | 0.0 | 0.0 | 0.00 | 0.00 | 0.00 | 77 | 1021.4 |
| 20260902024807 | 26 | 268 | 0.0 | 0.0 | 0.00 | 0.00 | 0.00 | 77 | 1021.4 |
| 20260902024707 | 26 | 268 | 0.0 | 0.0 | 0.00 | 0.00 | 0.00 | 77 | 1021.4 |
| 20260902024607 | 26 | 268 | 0.0 | 0.0 | 0.00 | 0.00 | 0.00 | 77 | 1021.4 |
| 20260902024504 | 26 | 267 | 0.0 | 0.0 | 0.00 | 0.00 | 0.00 | 77 | 1021.4 |
| 20260902024405 | 26 | 259 | 0.0 | 0.0 | 0.00 | 0.00 | 0.00 | 77 | 1021.3 |
| 20260902024302 | 26 | 259 | 0.0 | 0.0 | 0.00 | 0.00 | 0.00 | 77 | 1021.3 |
| 20260902024204 | 26 | 259 | 0.0 | 0.0 | 0.00 | 0.00 | 0.00 | 77 | 1021.3 |
| 20260902024102 | 26 | 259 | 0.0 | 0.0 | 0.00 | 0.00 | 0.00 | 77 | 1021.2 |
| 20260902024001 | 26 | 259 | 0.0 | 0.0 | 0.00 | 0.00 | 0.00 | 77 | 1021.3 |
| 20260902023858 | 26 | 259 | 0.0 | 0.0 | 0.00 | 0.00 | 0.00 | 77 | 1021.3 |
| 20260902023757 | 26 | 259 | 0.0 | 0.0 | 0.00 | 0.00 | 0.00 | 77 | 1021.2 |
| 20260902023656 | 26 | 257 | 0.0 | 0.0 | 0.00 | 0.00 | 0.00 | 77 | 1021.2 |
| 20260902023555 | 26 | 257 | 0.0 | 0.0 | 0.00 | 0.00 | 0.00 | 77 | 1021.2 |
| 20260902023453 | 26 | 257 | 0.0 | 0.0 | 0.00 | 0.00 | 0.00 | 77 | 1021.3 |
| 20260902023351 | 26 | 256 | 0.0 | 0.0 | 0.00 | 0.00 | 0.00 | 77 | 1021.3 |
| 20260902023243 | 26 | 256 | 0.0 | 0.0 | 0.00 | 0.00 | 0.00 | 77 | 1021.3 |
| 20260902023140 | 26 | 252 | 0.0 | 0.0 | 0.00 | 0.00 | 0.00 | 77 | 1021.2 |
| 20260902023041 | 26 | 252 | 0.0 | 0.0 | 0.00 | 0.00 | 0.00 | 78 | 1021.3 |
| 20260902022940 | 26 | 253 | 0.0 | 0.0 | 0.00 | 0.00 | 0.00 | 78 | 1021.2 |
| 20260902022841 | 26 | 253 | 0.0 | 0.0 | 0.00 | 0.00 | 0.00 | 78 | 1021.2 |
| 20260902022738 | 26 | 253 | 0.0 | 0.0 | 0.00 | 0.00 | 0.00 | 77 | 1021.2 |
| 20260902022639 | 26 | 253 | 0.0 | 0.0 | 0.00 | 0.00 | 0.00 | 77 | 1021.2 |
| 20260902022539 | 26 | 253 | 0.0 | 0.0 | 0.00 | 0.00 | 0.00 | 78 | 1021.3 |
| 20260902022437 | 26 | 252 | 0.0 | 0.0 | 0.00 | 0.00 | 0.00 | 78 | 1021.2 |
| 20260902022335 | 26 | 252 | 0.0 | 0.0 | 0.00 | 0.00 | 0.00 | 78 | 1021.2 |
| 20260902022235 | 26 | 252 | 0.0 | 0.0 | 0.00 | 0.00 | 0.00 | 78 | 1021.2 |
| 20260902022132 | 26 | 252 | 0.0 | 0.0 | 0.00 | 0.00 | 0.00 | 77 | 1021.1 |
| 20260902022032 | 26 | 252 | 0.0 | 0.0 | 0.00 | 0.00 | 0.00 | 78 | 1021.1 |
| 20260902021931 | 26 | 252 | 0.0 | 0.0 | 0.00 | 0.00 | 0.00 | 78 | 1021.2 |
| 20260902021828 | 26 | 252 | 0.0 | 0.0 | 0.00 | 0.00 | 0.00 | 78 | 1021.1 |
| 20260902021719 | 26 | 253 | 0.0 | 0.0 | 0.00 | 0.00 | 0.00 | 77 | 1021.1 |
| 20260902021619 | 26 | 252 | 0.0 | 0.0 | 0.00 | 0.00 | 0.00 | 77 | 1021.1 |
| 20260902021518 | 26 | 253 | 0.0 | 0.0 | 0.00 | 0.00 | 0.00 | 77 | 1021.1 |
| 20260902021418 | 26 | 253 | 0.0 | 0.0 | 0.00 | 0.00 | 0.00 | 78 | 1021.1 |
| 20260902021319 | 26 | 253 | 0.0 | 0.0 | 0.00 | 0.00 | 0.00 | 77 | 1021.1 |
| 20260902021219 | 26 | 253 | 0.0 | 0.0 | 0.00 | 0.00 | 0.00 | 77 | 1021.2 |
| 20260902021117 | 26 | 252 | 0.0 | 0.0 | 0.00 | 0.00 | 0.00 | 77 | 1021.0 |
| 20260902021016 | 26 | 251 | 0.0 | 0.0 | 0.00 | 0.00 | 0.00 | 77 | 1021.0 |
| 20260902020915 | 26 | 248 | 0.0 | 0.0 | 0.00 | 0.00 | 0.00 | 77 | 1021.1 |
| 20260902020813 | 26 | 249 | 0.0 | 0.0 | 0.00 | 0.00 | 0.00 | 77 | 1021.0 |
| 20260902020706 | 26 | 249 | 0.0 | 0.0 | 0.00 | 0.00 | 0.00 | 77 | 1021.0 |
| 20260902020607 | 26 | 249 | 0.0 | 0.0 | 0.00 | 0.00 | 0.00 | 77 | 1021.0 |
| 20260902020506 | 26 | 249 | 0.0 | 0.0 | 0.00 | 0.00 | 0.00 | 77 | 1021.0 |
| 20260902020406 | 26 | 249 | 0.0 | 0.0 | 0.00 | 0.00 | 0.00 | 77 | 1021.0 |
| 20260902020306 | 26 | 249 | 0.0 | 0.0 | 0.00 | 0.00 | 0.00 | 76 | 1021.1 |
| 20260902020156 | 26 | 249 | 0.0 | 0.0 | 0.00 | 0.00 | 0.00 | 76 | 1021.0 |
| 20260902020057 | 26 | 249 | 0.0 | 0.0 | 0.00 | 0.00 | 0.00 | 76 | 1021.0 |
| 20260902015956 | 26 | 301 | 0.0 | 0.0 | 0.00 | 0.00 | 0.00 | 76 | 1021.0 |
| 20260902015856 | 26 | 301 | 0.0 | 0.0 | 0.00 | 0.00 | 0.00 | 76 | 1021.0 |
| 20260902015755 | 26 | 301 | 0.0 | 0.0 | 0.00 | 0.00 | 0.00 | 76 | 1021.0 |
| 20260902015650 | 26 | 306 | 0.0 | 0.0 | 0.00 | 0.00 | 0.00 | 75 | 1021.0 |
| 20260902015550 | 26 | 318 | 0.0 | 0.0 | 0.00 | 0.00 | 0.00 | 75 | 1020.9 |
| 20260902015448 | 26 | 329 | 0.0 | 0.0 | 0.00 | 0.00 | 0.00 | 75 | 1020.9 |
| 20260902015351 | 26 | 329 | 0.0 | 0.0 | 0.00 | 0.00 | 0.00 | 75 | 1020.9 |
| 20260902015248 | 26 | 329 | 0.0 | 0.0 | 0.00 | 0.00 | 0.00 | 75 | 1020.9 |
| 20260902015145 | 26 | 329 | 0.0 | 0.0 | 0.00 | 0.00 | 0.00 | 75 | 1020.9 |
| 20260902015042 | 26 | 329 | 0.0 | 0.0 | 0.00 | 0.00 | 0.00 | 75 | 1020.9 |
| 20260902014943 | 27 | 329 | 0.0 | 0.0 | 0.00 | 0.00 | 0.00 | 75 | 1020.9 |
| 20260902014842 | 27 | 329 | 0.0 | 0.0 | 0.00 | 0.00 | 0.00 | 75 | 1020.8 |
| 20260902014743 | 27 | 329 | 0.0 | 0.0 | 0.00 | 0.00 | 0.00 | 75 | 1020.8 |
| 20260902014634 | 27 | 329 | 0.0 | 0.0 | 0.00 | 0.00 | 0.00 | 75 | 1020.8 |
| 20260902014534 | 27 | 329 | 0.0 | 0.0 | 0.00 | 0.00 | 0.00 | 75 | 1020.7 |
| 20260902014432 | 27 | 329 | 0.0 | 0.0 | 0.00 | 0.00 | 0.00 | 75 | 1020.8 |
| 20260902014333 | 27 | 329 | 0.0 | 0.0 | 0.00 | 0.00 | 0.00 | 75 | 1020.8 |
| 20260902014233 | 27 | 329 | 0.0 | 0.0 | 0.00 | 0.00 | 0.00 | 75 | 1020.8 |
| 20260902014133 | 27 | 329 | 0.0 | 0.0 | 0.00 | 0.00 | 0.00 | 75 | 1020.7 |
| 20260902014030 | 27 | 329 | 0.0 | 0.0 | 0.00 | 0.00 | 0.00 | 75 | 1020.6 |
| 20260902013931 | 27 | 329 | 0.0 | 0.0 | 0.00 | 0.00 | 0.00 | 75 | 1020.6 |
| 20260902013828 | 27 | 329 | 0.0 | 0.0 | 0.00 | 0.00 | 0.00 | 75 | 1020.6 |
| 20260902013727 | 27 | 328 | 0.0 | 0.0 | 0.00 | 0.00 | 0.00 | 76 | 1020.7 |
| 20260902013626 | 27 | 328 | 0.0 | 0.0 | 0.00 | 0.00 | 0.00 | 76 | 1020.6 |
| 20260902013525 | 27 | 328 | 0.0 | 0.0 | 0.00 | 0.00 | 0.00 | 76 | 1020.7 |
| 20260902013424 | 27 | 328 | 0.0 | 0.0 | 0.00 | 0.00 | 0.00 | 76 | 1020.6 |
| 20260902013323 | 27 | 328 | 0.0 | 0.0 | 0.00 | 0.00 | 0.00 | 76 | 1020.7 |
| 20260902013220 | 27 | 328 | 0.0 | 0.0 | 0.00 | 0.00 | 0.00 | 76 | 1020.6 |
| 20260902013112 | 27 | 327 | 0.0 | 0.0 | 0.00 | 0.00 | 0.00 | 75 | 1020.7 |
| 20260902013011 | 27 | 327 | 0.0 | 0.0 | 0.00 | 0.00 | 0.00 | 75 | 1020.7 |
| 20260902012911 | 27 | 327 | 0.0 | 0.0 | 0.00 | 0.00 | 0.00 | 75 | 1020.6 |
| 20260902012811 | 27 | 327 | 0.0 | 0.0 | 0.00 | 0.00 | 0.00 | 75 | 1020.7 |
| 20260902012710 | 27 | 327 | 0.0 | 0.0 | 0.00 | 0.00 | 0.00 | 75 | 1020.7 |
| 20260902012605 | 27 | 327 | 0.0 | 0.0 | 0.00 | 0.00 | 0.00 | 74 | 1020.7 |
| 20260902012505 | 27 | 326 | 0.0 | 0.0 | 0.00 | 0.00 | 0.00 | 74 | 1020.7 |
| 20260902012404 | 27 | 326 | 0.0 | 0.0 | 0.00 | 0.00 | 0.00 | 74 | 1020.8 |
| 20260902012309 | 27 | 325 | 0.0 | 0.0 | 0.00 | 0.00 | 0.00 | 73 | 1020.7 |
| 20260902012205 | 27 | 324 | 0.0 | 0.0 | 0.00 | 0.00 | 0.00 | 73 | 1020.7 |
| 20260902012102 | 27 | 321 | 0.0 | 0.0 | 0.00 | 0.00 | 0.00 | 72 | 1020.6 |
| 20260902012002 | 27 | 313 | 0.0 | 0.0 | 0.00 | 0.00 | 0.00 | 72 | 1020.7 |
| 20260902011902 | 27 | 317 | 0.0 | 0.0 | 0.00 | 0.00 | 0.00 | 72 | 1020.6 |
| 20260902011801 | 27 | 319 | 0.0 | 0.0 | 0.00 | 0.00 | 0.00 | 72 | 1020.6 |
| 20260902011659 | 27 | 319 | 0.0 | 0.0 | 0.00 | 0.00 | 0.00 | 72 | 1020.6 |
| 20260902011555 | 27 | 321 | 0.0 | 0.0 | 0.00 | 0.00 | 0.00 | 71 | 1020.6 |
| 20260902011452 | 27 | 327 | 0.0 | 0.0 | 0.00 | 0.00 | 0.00 | 70 | 1020.6 |
| 20260902011353 | 27 | 329 | 0.0 | 0.0 | 0.00 | 0.00 | 0.00 | 70 | 1020.7 |
| 20260902011251 | 27 | 329 | 0.0 | 0.0 | 0.00 | 0.00 | 0.00 | 70 | 1020.6 |
| 20260902011149 | 27 | 330 | 0.0 | 0.0 | 0.00 | 0.00 | 0.00 | 70 | 1020.7 |
| 20260902011049 | 27 | 330 | 0.0 | 0.0 | 0.00 | 0.00 | 0.00 | 70 | 1020.7 |
| 20260902010947 | 27 | 330 | 0.0 | 0.0 | 0.00 | 0.00 | 0.00 | 70 | 1020.6 |
| 20260902010847 | 28 | 330 | 0.0 | 0.0 | 0.00 | 0.00 | 0.00 | 69 | 1020.5 |
| 20260902010745 | 28 | 330 | 0.0 | 0.0 | 0.00 | 0.00 | 0.00 | 69 | 1020.5 |
| 20260902010643 | 28 | 330 | 0.0 | 0.0 | 0.00 | 0.00 | 0.00 | 69 | 1020.5 |
| 20260902010542 | 28 | 330 | 0.0 | 0.0 | 0.00 | 0.00 | 0.00 | 69 | 1020.5 |
| 20260902010442 | 28 | 330 | 0.0 | 0.0 | 0.00 | 0.00 | 0.00 | 68 | 1020.6 |
| 20260902010340 | 28 | 330 | 0.0 | 0.0 | 0.00 | 0.00 | 0.00 | 68 | 1020.6 |
| 20260902010240 | 28 | 330 | 0.0 | 0.0 | 0.00 | 0.00 | 0.00 | 68 | 1020.6 |
| 20260902010137 | 28 | 330 | 0.0 | 0.0 | 0.00 | 0.00 | 0.00 | 68 | 1020.5 |
| 20260902010031 | 28 | 330 | 0.0 | 0.0 | 0.00 | 0.00 | 0.00 | 68 | 1020.5 |
| 20260902005931 | 28 | 330 | 0.0 | 0.0 | 0.00 | 0.00 | 0.00 | 68 | 1020.5 |
| 20260902005831 | 28 | 330 | 0.0 | 0.0 | 0.00 | 0.00 | 0.00 | 68 | 1020.5 |
| 20260902005730 | 28 | 330 | 0.0 | 0.0 | 0.00 | 0.00 | 0.00 | 67 | 1020.5 |
| 20260902005627 | 28 | 330 | 0.0 | 0.0 | 0.00 | 0.00 | 0.00 | 67 | 1020.5 |
| 20260902005527 | 28 | 330 | 0.0 | 0.0 | 0.00 | 0.00 | 0.00 | 67 | 1020.4 |
| 20260902005426 | 28 | 330 | 0.0 | 0.0 | 0.00 | 0.00 | 0.00 | 67 | 1020.4 |
| 20260902005325 | 28 | 330 | 0.0 | 0.0 | 0.00 | 0.00 | 0.00 | 67 | 1020.4 |
| 20260902005222 | 28 | 330 | 0.0 | 0.0 | 0.00 | 0.00 | 0.00 | 67 | 1020.5 |
| 20260902005121 | 28 | 330 | 0.0 | 0.0 | 0.00 | 0.00 | 0.00 | 66 | 1020.5 |
| 20260902005021 | 28 | 330 | 0.0 | 0.0 | 0.00 | 0.00 | 0.00 | 66 | 1020.4 |
| 20260902004919 | 28 | 330 | 0.0 | 0.0 | 0.00 | 0.00 | 0.00 | 66 | 1020.5 |
| 20260902004818 | 28 | 330 | 0.0 | 0.0 | 0.00 | 0.00 | 0.00 | 66 | 1020.4 |
| 20260902004717 | 28 | 330 | 0.0 | 0.0 | 0.00 | 0.00 | 0.00 | 66 | 1020.4 |
| 20260902004615 | 28 | 330 | 0.0 | 0.0 | 0.00 | 0.00 | 0.00 | 66 | 1020.4 |
| 20260902004508 | 28 | 330 | 0.0 | 0.0 | 0.00 | 0.00 | 0.00 | 65 | 1020.4 |
| 20260902004404 | 28 | 330 | 0.0 | 0.0 | 0.00 | 0.00 | 0.00 | 65 | 1020.4 |
| 20260902004303 | 28 | 330 | 0.0 | 0.0 | 0.00 | 0.00 | 0.00 | 66 | 1020.3 |
| 20260902004204 | 28 | 330 | 0.0 | 0.0 | 0.00 | 0.00 | 0.00 | 65 | 1020.3 |
| 20260902004104 | 28 | 330 | 0.0 | 0.0 | 0.00 | 0.00 | 0.00 | 65 | 1020.3 |
| 20260902004002 | 28 | 330 | 0.0 | 0.0 | 0.00 | 0.00 | 0.00 | 65 | 1020.3 |
| 20260902003902 | 28 | 330 | 0.0 | 0.0 | 0.00 | 0.00 | 0.00 | 65 | 1020.3 |
| 20260902003802 | 28 | 330 | 0.0 | 0.0 | 0.00 | 0.00 | 0.00 | 65 | 1020.3 |
| 20260902003701 | 28 | 330 | 0.0 | 0.0 | 0.00 | 0.00 | 0.00 | 65 | 1020.3 |
| 20260902003558 | 28 | 330 | 0.0 | 0.0 | 0.00 | 0.00 | 0.00 | 65 | 1020.3 |
| 20260902003458 | 28 | 330 | 0.0 | 0.0 | 0.00 | 0.00 | 0.00 | 65 | 1020.2 |
| 20260902003357 | 28 | 330 | 0.0 | 0.0 | 0.00 | 0.00 | 0.00 | 65 | 1020.4 |
| 20260902003256 | 28 | 330 | 0.0 | 0.0 | 0.00 | 0.00 | 0.00 | 65 | 1020.3 |
| 20260902003155 | 28 | 330 | 0.0 | 0.0 | 0.00 | 0.00 | 0.00 | 65 | 1020.3 |
| 20260902003052 | 28 | 330 | 0.0 | 0.0 | 0.00 | 0.00 | 0.00 | 65 | 1020.3 |
| 20260902002947 | 28 | 330 | 0.0 | 0.0 | 0.00 | 0.00 | 0.00 | 65 | 1020.3 |
| 20260902002847 | 28 | 330 | 0.0 | 0.0 | 0.00 | 0.00 | 0.00 | 65 | 1020.3 |
| 20260902002746 | 28 | 330 | 0.0 | 0.0 | 0.00 | 0.00 | 0.00 | 65 | 1020.3 |
| 20260902002645 | 28 | 330 | 0.0 | 0.0 | 0.00 | 0.00 | 0.00 | 65 | 1020.4 |
| 20260902002543 | 28 | 330 | 0.0 | 0.0 | 0.00 | 0.00 | 0.00 | 65 | 1020.4 |
| 20260902002444 | 28 | 330 | 0.0 | 0.0 | 0.00 | 0.00 | 0.00 | 65 | 1020.3 |
| 20260902002339 | 28 | 330 | 0.0 | 0.0 | 0.00 | 0.00 | 0.00 | 65 | 1020.3 |
| 20260902002241 | 28 | 330 | 0.0 | 0.0 | 0.00 | 0.00 | 0.00 | 65 | 1020.3 |
| 20260902002137 | 28 | 330 | 0.0 | 0.0 | 0.00 | 0.00 | 0.00 | 65 | 1020.3 |
| 20260902002037 | 28 | 330 | 0.0 | 0.0 | 0.00 | 0.00 | 0.00 | 65 | 1020.4 |
| 20260902001936 | 28 | 330 | 0.0 | 0.0 | 0.00 | 0.00 | 0.00 | 65 | 1020.3 |
| 20260902001836 | 28 | 330 | 0.0 | 0.0 | 0.00 | 0.00 | 0.00 | 65 | 1020.3 |
| 20260902001732 | 28 | 330 | 0.0 | 0.0 | 0.00 | 0.00 | 0.00 | 65 | 1020.4 |
| 20260902001633 | 28 | 330 | 0.0 | 0.0 | 0.00 | 0.00 | 0.00 | 65 | 1020.4 |
| 20260902001531 | 28 | 330 | 0.0 | 0.0 | 0.00 | 0.00 | 0.00 | 65 | 1020.5 |
| 20260902001425 | 28 | 330 | 0.0 | 0.0 | 0.00 | 0.00 | 0.00 | 65 | 1020.4 |
| 20260902001325 | 28 | 330 | 0.0 | 0.0 | 0.00 | 0.00 | 0.00 | 65 | 1020.4 |
| 20260902001225 | 28 | 330 | 0.0 | 0.0 | 0.00 | 0.00 | 0.00 | 65 | 1020.4 |
| 20260902001123 | 28 | 330 | 0.0 | 0.0 | 0.00 | 0.00 | 0.00 | 65 | 1020.4 |
| 20260902001021 | 28 | 330 | 0.0 | 0.0 | 0.00 | 0.00 | 0.00 | 65 | 1020.3 |
| 20260902000921 | 28 | 330 | 0.0 | 0.0 | 0.00 | 0.00 | 0.00 | 65 | 1020.4 |
| 20260902000819 | 28 | 330 | 0.0 | 0.0 | 0.00 | 0.00 | 0.00 | 65 | 1020.4 |
| 20260902000719 | 28 | 330 | 0.0 | 0.0 | 0.00 | 0.00 | 0.00 | 65 | 1020.4 |
| 20260902000617 | 28 | 330 | 0.0 | 0.0 | 0.00 | 0.00 | 0.00 | 65 | 1020.4 |
| 20260902000514 | 28 | 330 | 0.0 | 0.0 | 0.00 | 0.00 | 0.00 | 65 | 1020.4 |
| 20260902000409 | 28 | 330 | 0.0 | 0.0 | 0.00 | 0.00 | 0.00 | 65 | 1020.4 |
| 20260902000307 | 28 | 330 | 0.0 | 0.0 | 0.00 | 0.00 | 0.00 | 65 | 1020.4 |
| 20260902000211 | 28 | 330 | 0.0 | 0.0 | 0.00 | 0.00 | 0.00 | 65 | 1020.5 |
| 20260902000107 | 28 | 330 | 0.0 | 0.0 | 0.00 | 0.00 | 0.00 | 65 | 1020.4 |
| 20260902000009 | 28 | 330 | 0.0 | 0.0 | 0.00 | 0.00 | 0.00 | 65 | 1020.4 |
| 20260901235902 | 28 | 330 | 0.0 | 0.0 | 0.00 | 0.00 | 0.00 | 65 | 1020.5 |
| 20260901235802 | 28 | 330 | 0.0 | 0.0 | 0.00 | 0.00 | 0.00 | 65 | 1020.4 |
| 20260901235703 | 28 | 330 | 0.0 | 0.0 | 0.00 | 0.00 | 0.00 | 65 | 1020.4 |
| 20260901235601 | 28 | 330 | 0.0 | 0.0 | 0.00 | 0.00 | 0.00 | 65 | 1020.5 |
| 20260901235459 | 28 | 330 | 0.0 | 0.0 | 0.00 | 0.00 | 0.00 | 65 | 1020.4 |
| 20260901235358 | 28 | 330 | 0.0 | 0.0 | 0.00 | 0.00 | 0.00 | 65 | 1020.4 |
| 20260901235258 | 28 | 330 | 0.0 | 0.0 | 0.00 | 0.00 | 0.00 | 65 | 1020.6 |
| 20260901235156 | 28 | 330 | 0.0 | 0.0 | 0.00 | 0.00 | 0.00 | 65 | 1020.5 |
| 20260901235054 | 28 | 330 | 0.0 | 0.0 | 0.00 | 0.00 | 0.00 | 65 | 1020.5 |
| 20260901234952 | 28 | 330 | 0.0 | 0.0 | 0.00 | 0.00 | 0.00 | 65 | 1020.5 |
| 20260901234852 | 28 | 330 | 0.0 | 0.0 | 0.00 | 0.00 | 0.00 | 65 | 1020.5 |
| 20260901234751 | 28 | 330 | 0.0 | 0.0 | 0.00 | 0.00 | 0.00 | 65 | 1020.5 |
| 20260901234647 | 28 | 330 | 0.0 | 0.0 | 0.00 | 0.00 | 0.00 | 65 | 1020.5 |
| 20260901234549 | 28 | 330 | 0.0 | 0.0 | 0.00 | 0.00 | 0.00 | 65 | 1020.5 |
| 20260901234447 | 28 | 330 | 0.0 | 0.0 | 0.00 | 0.00 | 0.00 | 65 | 1020.4 |
| 20260901234339 | 28 | 330 | 0.0 | 0.0 | 0.00 | 0.00 | 0.00 | 65 | 1020.5 |
| 20260901234241 | 28 | 330 | 0.0 | 0.0 | 0.00 | 0.00 | 0.00 | 65 | 1020.5 |
| 20260901234140 | 28 | 330 | 0.0 | 0.0 | 0.00 | 0.00 | 0.00 | 65 | 1020.5 |
| 20260901234039 | 29 | 330 | 0.0 | 0.0 | 0.00 | 0.00 | 0.00 | 65 | 1020.4 |
| 20260901233937 | 29 | 330 | 0.0 | 0.0 | 0.00 | 0.00 | 0.00 | 65 | 1020.5 |
| 20260901233832 | 29 | 330 | 0.0 | 0.0 | 0.00 | 0.00 | 0.00 | 65 | 1020.4 |
| 20260901233732 | 29 | 330 | 0.0 | 0.0 | 0.00 | 0.00 | 0.00 | 65 | 1020.5 |
| 20260901233633 | 29 | 330 | 0.0 | 0.0 | 0.00 | 0.00 | 0.00 | 65 | 1020.4 |
| 20260901233533 | 29 | 330 | 0.0 | 0.0 | 0.00 | 0.00 | 0.00 | 65 | 1020.5 |
| 20260901233430 | 29 | 330 | 0.0 | 0.0 | 0.00 | 0.00 | 0.00 | 66 | 1020.5 |
| 20260901233330 | 29 | 330 | 0.0 | 0.0 | 0.00 | 0.00 | 0.00 | 65 | 1020.5 |
| 20260901233230 | 29 | 330 | 0.0 | 0.0 | 0.00 | 0.00 | 0.00 | 65 | 1020.5 |
| 20260901233126 | 29 | 330 | 0.0 | 0.0 | 0.00 | 0.00 | 0.00 | 65 | 1020.5 |
| 20260901233026 | 29 | 330 | 0.0 | 0.0 | 0.00 | 0.00 | 0.00 | 65 | 1020.5 |
| 20260901232924 | 29 | 330 | 0.0 | 0.0 | 0.00 | 0.00 | 0.00 | 65 | 1020.5 |
| 20260901232818 | 29 | 330 | 0.0 | 0.0 | 0.00 | 0.00 | 0.00 | 65 | 1020.5 |
| 20260901232719 | 29 | 330 | 0.0 | 0.0 | 0.00 | 0.00 | 0.00 | 65 | 1020.5 |
| 20260901232618 | 29 | 330 | 0.0 | 0.0 | 0.00 | 0.00 | 0.00 | 65 | 1020.5 |
| 20260901232517 | 29 | 330 | 0.0 | 0.0 | 0.00 | 0.00 | 0.00 | 65 | 1020.5 |
| 20260901232414 | 29 | 330 | 0.0 | 0.0 | 0.00 | 0.00 | 0.00 | 65 | 1020.5 |
| 20260901232314 | 29 | 330 | 0.0 | 0.0 | 0.00 | 0.00 | 0.00 | 65 | 1020.6 |
| 20260901232213 | 29 | 330 | 0.0 | 0.0 | 0.00 | 0.00 | 0.00 | 65 | 1020.5 |
| 20260901232112 | 29 | 330 | 0.0 | 0.0 | 0.00 | 0.00 | 0.00 | 65 | 1020.6 |
| 20260901232011 | 29 | 330 | 0.0 | 0.0 | 0.00 | 0.00 | 0.00 | 65 | 1020.6 |
| 20260901231909 | 29 | 330 | 0.0 | 0.0 | 0.00 | 0.00 | 0.00 | 65 | 1020.7 |
| 20260901231804 | 29 | 330 | 0.0 | 0.0 | 0.00 | 0.00 | 0.00 | 65 | 1020.6 |
| 20260901231702 | 29 | 330 | 0.0 | 0.0 | 0.00 | 0.00 | 0.00 | 65 | 1020.7 |
| 20260901231604 | 29 | 330 | 0.0 | 0.0 | 0.00 | 0.00 | 0.00 | 65 | 1020.6 |
| 20260901231502 | 29 | 330 | 0.0 | 0.0 | 0.00 | 0.00 | 0.00 | 65 | 1020.7 |
| 20260901231402 | 29 | 330 | 0.0 | 0.0 | 0.00 | 0.00 | 0.00 | 65 | 1020.7 |
| 20260901231255 | 29 | 330 | 0.0 | 0.0 | 0.00 | 0.00 | 0.00 | 65 | 1020.8 |
| 20260901231156 | 29 | 330 | 0.0 | 0.0 | 0.00 | 0.00 | 0.00 | 65 | 1020.8 |
| 20260901231056 | 29 | 330 | 0.0 | 0.0 | 0.00 | 0.00 | 0.00 | 65 | 1020.8 |
| 20260901230955 | 29 | 330 | 0.0 | 0.0 | 0.00 | 0.00 | 0.00 | 65 | 1020.7 |
| 20260901230853 | 29 | 330 | 0.0 | 0.0 | 0.00 | 0.00 | 0.00 | 65 | 1020.8 |
| 20260901230752 | 29 | 330 | 0.0 | 0.0 | 0.00 | 0.00 | 0.00 | 64 | 1020.8 |
| 20260901230651 | 30 | 330 | 0.0 | 0.0 | 0.00 | 0.00 | 0.00 | 64 | 1020.9 |
| 20260901230550 | 30 | 330 | 0.0 | 0.0 | 0.00 | 0.00 | 0.00 | 64 | 1020.8 |
| 20260901230448 | 30 | 330 | 0.0 | 0.0 | 0.00 | 0.00 | 0.00 | 64 | 1020.8 |
| 20260901230348 | 30 | 330 | 0.0 | 0.0 | 0.00 | 0.00 | 0.00 | 64 | 1020.8 |
| 20260901230245 | 30 | 330 | 0.0 | 0.0 | 0.00 | 0.00 | 0.00 | 64 | 1020.9 |
| 20260901230145 | 30 | 330 | 0.0 | 0.0 | 0.00 | 0.00 | 0.00 | 64 | 1020.9 |
| 20260901230042 | 30 | 330 | 0.0 | 0.0 | 0.00 | 0.00 | 0.00 | 64 | 1020.9 |
| 20260901225943 | 30 | 330 | 0.0 | 0.0 | 0.00 | 0.00 | 0.00 | 64 | 1020.9 |
| 20260901225840 | 30 | 330 | 0.0 | 0.0 | 0.00 | 0.00 | 0.00 | 64 | 1020.9 |
| 20260901225735 | 30 | 330 | 0.0 | 0.0 | 0.00 | 0.00 | 0.00 | 63 | 1020.9 |
| 20260901225634 | 30 | 330 | 0.0 | 0.0 | 0.00 | 0.00 | 0.00 | 63 | 1020.9 |
| 20260901225535 | 30 | 330 | 0.0 | 0.0 | 0.00 | 0.00 | 0.00 | 63 | 1020.8 |
| 20260901225432 | 30 | 330 | 0.0 | 0.0 | 0.00 | 0.00 | 0.00 | 63 | 1020.8 |
| 20260901225331 | 30 | 330 | 0.0 | 0.0 | 0.00 | 0.00 | 0.00 | 64 | 1020.7 |
| 20260901225231 | 30 | 330 | 0.0 | 0.0 | 0.00 | 0.00 | 0.00 | 63 | 1020.8 |
| 20260901225129 | 30 | 330 | 0.0 | 0.0 | 0.00 | 0.00 | 0.00 | 63 | 1020.7 |
| 20260901225029 | 30 | 330 | 0.0 | 0.0 | 0.00 | 0.00 | 0.00 | 63 | 1020.7 |
| 20260901224927 | 30 | 330 | 0.0 | 0.0 | 0.00 | 0.00 | 0.00 | 64 | 1020.6 |
| 20260901224825 | 30 | 330 | 0.0 | 0.0 | 0.00 | 0.00 | 0.00 | 64 | 1020.7 |
| 20260901224725 | 30 | 330 | 0.0 | 0.0 | 0.00 | 0.00 | 0.00 | 64 | 1020.7 |
| 20260901224622 | 30 | 330 | 0.0 | 0.0 | 0.00 | 0.00 | 0.00 | 64 | 1020.7 |
| 20260901224521 | 30 | 330 | 0.0 | 0.0 | 0.00 | 0.00 | 0.00 | 64 | 1020.7 |
| 20260901224421 | 30 | 330 | 0.0 | 0.0 | 0.00 | 0.00 | 0.00 | 64 | 1020.6 |
| 20260901224318 | 30 | 330 | 0.0 | 0.0 | 0.00 | 0.00 | 0.00 | 64 | 1020.6 |
| 20260901224209 | 30 | 330 | 0.0 | 0.0 | 0.00 | 0.00 | 0.00 | 64 | 1020.6 |
| 20260901224107 | 30 | 330 | 0.0 | 0.0 | 0.00 | 0.00 | 0.00 | 65 | 1020.7 |
| 20260901224008 | 30 | 330 | 0.0 | 0.0 | 0.00 | 0.00 | 0.00 | 65 | 1020.7 |
| 20260901223907 | 30 | 330 | 0.0 | 0.0 | 0.00 | 0.00 | 0.00 | 65 | 1020.7 |
| 20260901223809 | 30 | 330 | 0.0 | 0.0 | 0.00 | 0.00 | 0.00 | 65 | 1020.5 |
| 20260901223705 | 30 | 330 | 0.0 | 0.0 | 0.00 | 0.00 | 0.00 | 63 | 1020.6 |
| 20260901223601 | 30 | 330 | 0.0 | 0.0 | 0.00 | 0.00 | 0.00 | 63 | 1020.6 |
| 20260901223503 | 30 | 330 | 0.0 | 0.0 | 0.00 | 0.00 | 0.00 | 63 | 1020.6 |
| 20260901223403 | 30 | 330 | 0.0 | 0.0 | 0.00 | 0.00 | 0.00 | 62 | 1020.7 |
| 20260901223303 | 30 | 330 | 0.0 | 0.0 | 0.00 | 0.00 | 0.00 | 63 | 1020.6 |
| 20260901223200 | 30 | 330 | 0.0 | 0.0 | 0.00 | 0.00 | 0.00 | 63 | 1020.7 |
| 20260901223101 | 30 | 330 | 0.0 | 0.0 | 0.00 | 0.00 | 0.00 | 63 | 1020.6 |
| 20260901222957 | 30 | 330 | 0.0 | 0.0 | 0.00 | 0.00 | 0.00 | 63 | 1020.6 |
| 20260901222859 | 30 | 330 | 0.0 | 0.0 | 0.00 | 0.00 | 0.00 | 64 | 1020.7 |
| 20260901222757 | 30 | 330 | 0.0 | 0.0 | 0.00 | 0.00 | 0.00 | 63 | 1020.6 |
| 20260901222650 | 30 | 330 | 0.0 | 0.0 | 0.00 | 0.00 | 0.00 | 63 | 1020.6 |
| 20260901222550 | 30 | 330 | 0.0 | 0.0 | 0.00 | 0.00 | 0.00 | 65 | 1020.6 |
| 20260901222451 | 30 | 330 | 0.0 | 0.0 | 0.00 | 0.00 | 0.00 | 64 | 1020.7 |
| 20260901222349 | 30 | 330 | 0.0 | 0.0 | 0.00 | 0.00 | 0.00 | 63 | 1020.6 |
| 20260901222246 | 30 | 330 | 0.0 | 0.0 | 0.00 | 0.00 | 0.00 | 63 | 1020.6 |
| 20260901222142 | 30 | 330 | 0.0 | 0.0 | 0.00 | 0.00 | 0.00 | 62 | 1020.6 |
| 20260901222041 | 30 | 330 | 0.0 | 0.0 | 0.00 | 0.00 | 0.00 | 62 | 1020.6 |
| 20260901221940 | 30 | 330 | 0.0 | 0.0 | 0.00 | 0.00 | 0.00 | 62 | 1020.6 |
| 20260901221841 | 30 | 330 | 0.0 | 0.0 | 0.00 | 0.00 | 0.00 | 62 | 1020.6 |
| 20260901221740 | 30 | 330 | 0.0 | 0.0 | 0.00 | 0.00 | 0.00 | 62 | 1020.6 |
| 20260901221637 | 31 | 330 | 0.0 | 0.0 | 0.00 | 0.00 | 0.00 | 62 | 1020.5 |
| 20260901221539 | 31 | 330 | 0.0 | 0.0 | 0.00 | 0.00 | 0.00 | 62 | 1020.5 |
| 20260901221438 | 31 | 330 | 0.0 | 0.0 | 0.00 | 0.00 | 0.00 | 61 | 1020.5 |
| 20260901221336 | 31 | 330 | 0.0 | 0.0 | 0.00 | 0.00 | 0.00 | 62 | 1020.6 |
| 20260901221234 | 31 | 330 | 0.0 | 0.0 | 0.00 | 0.00 | 0.00 | 63 | 1020.6 |
| 20260901221126 | 31 | 330 | 0.0 | 0.0 | 0.00 | 0.00 | 0.00 | 63 | 1020.6 |
| 20260901221023 | 31 | 330 | 0.0 | 0.0 | 0.00 | 0.00 | 0.00 | 62 | 1020.6 |
| 20260901220924 | 31 | 330 | 0.0 | 0.0 | 0.00 | 0.00 | 0.00 | 64 | 1020.5 |
| 20260901220824 | 31 | 330 | 0.0 | 0.0 | 0.00 | 0.00 | 0.00 | 62 | 1020.5 |
| 20260901220725 | 31 | 330 | 0.0 | 0.0 | 0.00 | 0.00 | 0.00 | 62 | 1020.6 |
| 20260901220622 | 31 | 330 | 0.0 | 0.0 | 0.00 | 0.00 | 0.00 | 63 | 1020.5 |
| 20260901220522 | 31 | 330 | 0.0 | 0.0 | 0.00 | 0.00 | 0.00 | 61 | 1020.6 |
| 20260901220419 | 31 | 330 | 0.0 | 0.0 | 0.00 | 0.00 | 0.00 | 61 | 1020.5 |
| 20260901220321 | 31 | 330 | 0.0 | 0.0 | 0.00 | 0.00 | 0.00 | 61 | 1020.5 |
| 20260901220218 | 31 | 330 | 0.0 | 0.0 | 0.00 | 0.00 | 0.00 | 60 | 1020.5 |
| 20260901220119 | 31 | 330 | 0.0 | 0.0 | 0.00 | 0.00 | 0.00 | 60 | 1020.5 |
| 20260901220016 | 31 | 330 | 0.0 | 0.0 | 0.00 | 0.00 | 0.00 | 62 | 1020.4 |
| 20260901215916 | 31 | 330 | 0.0 | 0.0 | 0.00 | 0.00 | 0.00 | 60 | 1020.5 |
| 20260901215816 | 31 | 330 | 0.0 | 0.0 | 0.00 | 0.00 | 0.00 | 60 | 1020.5 |
| 20260901215716 | 31 | 330 | 0.0 | 0.0 | 0.00 | 0.00 | 0.00 | 60 | 1020.6 |
| 20260901215615 | 31 | 330 | 0.0 | 0.0 | 0.00 | 0.00 | 0.00 | 60 | 1020.6 |
| 20260901215515 | 31 | 330 | 0.0 | 0.0 | 0.00 | 0.00 | 0.00 | 60 | 1020.6 |
| 20260901215414 | 31 | 330 | 0.0 | 0.0 | 0.00 | 0.00 | 0.00 | 63 | 1020.6 |
| 20260901215315 | 31 | 330 | 0.0 | 0.0 | 0.00 | 0.00 | 0.00 | 61 | 1020.5 |
| 20260901215215 | 31 | 330 | 0.0 | 0.0 | 0.00 | 0.00 | 0.00 | 60 | 1020.6 |
| 20260901215114 | 31 | 330 | 0.0 | 0.0 | 0.00 | 0.00 | 0.00 | 62 | 1020.6 |
| 20260901215012 | 31 | 330 | 0.0 | 0.0 | 0.00 | 0.00 | 0.00 | 61 | 1020.6 |
| 20260901214912 | 31 | 330 | 0.0 | 0.0 | 0.00 | 0.00 | 0.00 | 62 | 1020.6 |
| 20260901214811 | 31 | 330 | 0.0 | 0.0 | 0.00 | 0.00 | 0.00 | 63 | 1020.6 |
| 20260901214708 | 31 | 330 | 0.0 | 0.0 | 0.00 | 0.00 | 0.00 | 62 | 1020.6 |
| 20260901214608 | 31 | 330 | 0.0 | 0.0 | 0.00 | 0.00 | 0.00 | 62 | 1020.5 |
| 20260901214507 | 31 | 330 | 0.0 | 0.0 | 0.00 | 0.00 | 0.00 | 63 | 1020.5 |
| 20260901214403 | 31 | 330 | 0.0 | 0.0 | 0.00 | 0.00 | 0.00 | 61 | 1020.5 |
| 20260901214305 | 31 | 330 | 0.0 | 0.0 | 0.00 | 0.00 | 0.00 | 63 | 1020.5 |
| 20260901214203 | 31 | 330 | 0.0 | 0.0 | 0.00 | 0.00 | 0.00 | 61 | 1020.6 |
| 20260901214105 | 31 | 330 | 0.0 | 0.0 | 0.00 | 0.00 | 0.00 | 60 | 1020.5 |
| 20260901214005 | 31 | 330 | 0.0 | 0.0 | 0.00 | 0.00 | 0.00 | 60 | 1020.5 |
| 20260901213859 | 31 | 329 | 0.0 | 0.0 | 0.00 | 0.00 | 0.00 | 61 | 1020.5 |
| 20260901213757 | 31 | 329 | 0.0 | 0.0 | 0.00 | 0.00 | 0.00 | 61 | 1020.5 |
| 20260901213657 | 31 | 329 | 0.0 | 0.0 | 0.00 | 0.00 | 0.00 | 63 | 1020.5 |
| 20260901213559 | 31 | 329 | 0.0 | 0.0 | 0.00 | 0.00 | 0.00 | 63 | 1020.5 |
| 20260901213458 | 31 | 329 | 0.0 | 0.0 | 0.00 | 0.00 | 0.00 | 61 | 1020.5 |
| 20260901213353 | 31 | 329 | 0.0 | 0.0 | 0.00 | 0.00 | 0.00 | 61 | 1020.5 |
| 20260901213252 | 31 | 329 | 0.0 | 0.0 | 0.00 | 0.00 | 0.00 | 61 | 1020.5 |
| 20260901213151 | 31 | 329 | 0.0 | 0.0 | 0.00 | 0.00 | 0.00 | 61 | 1020.5 |
| 20260901213052 | 31 | 329 | 0.0 | 0.0 | 0.00 | 0.00 | 0.00 | 61 | 1020.6 |
| 20260901212953 | 31 | 329 | 0.0 | 0.0 | 0.00 | 0.00 | 0.00 | 63 | 1020.6 |
| 20260901212845 | 31 | 329 | 0.0 | 0.0 | 0.00 | 0.00 | 0.00 | 63 | 1020.6 |
| 20260901212746 | 31 | 329 | 0.0 | 0.0 | 0.00 | 0.00 | 0.00 | 62 | 1020.6 |
| 20260901212647 | 31 | 329 | 0.0 | 0.0 | 0.00 | 0.00 | 0.00 | 61 | 1020.6 |
| 20260901212546 | 31 | 321 | 0.0 | 0.0 | 0.00 | 0.00 | 0.00 | 61 | 1020.7 |
| 20260901212446 | 31 | 313 | 0.0 | 0.0 | 0.00 | 0.00 | 0.00 | 62 | 1020.6 |
| 20260901212347 | 31 | 290 | 0.0 | 0.0 | 0.00 | 0.00 | 0.00 | 61 | 1020.6 |
| 20260901212244 | 31 | 290 | 0.0 | 0.0 | 0.00 | 0.00 | 0.00 | 63 | 1020.7 |
| 20260901212143 | 31 | 290 | 0.0 | 0.0 | 0.00 | 0.00 | 0.00 | 62 | 1020.6 |
| 20260901212042 | 31 | 290 | 0.0 | 0.0 | 0.00 | 0.00 | 0.00 | 61 | 1020.7 |
| 20260901211943 | 31 | 288 | 0.0 | 0.0 | 0.00 | 0.00 | 0.00 | 62 | 1020.7 |
| 20260901211839 | 31 | 285 | 0.0 | 0.0 | 0.00 | 0.00 | 0.00 | 63 | 1020.7 |
| 20260901211739 | 31 | 13 | 0.0 | 0.0 | 0.00 | 0.00 | 0.00 | 63 | 1020.7 |
| 20260901211636 | 31 | 13 | 0.0 | 0.0 | 0.00 | 0.00 | 0.00 | 62 | 1020.7 |
| 20260901211537 | 31 | 13 | 0.0 | 0.0 | 0.00 | 0.00 | 0.00 | 63 | 1020.8 |
| 20260901211436 | 31 | 13 | 0.0 | 0.0 | 0.00 | 0.00 | 0.00 | 62 | 1020.7 |
| 20260901211335 | 31 | 13 | 0.0 | 0.0 | 0.00 | 0.00 | 0.00 | 62 | 1020.8 |
| 20260901211232 | 31 | 12 | 0.0 | 0.0 | 0.00 | 0.00 | 0.00 | 62 | 1020.7 |
| 20260901211130 | 30 | 13 | 0.0 | 0.0 | 0.00 | 0.00 | 0.00 | 63 | 1020.8 |
| 20260901211030 | 31 | 9 | 0.0 | 0.0 | 0.00 | 0.00 | 0.00 | 62 | 1020.8 |
| 20260901210930 | 31 | 10 | 0.0 | 0.0 | 0.00 | 0.00 | 0.00 | 64 | 1020.8 |
| 20260901210831 | 30 | 40 | 0.0 | 6.4 | 0.00 | 0.00 | 0.00 | 62 | 1020.8 |
| 20260901210731 | 31 | 40 | 0.0 | 6.4 | 0.00 | 0.00 | 0.00 | 62 | 1020.8 |
| 20260901210630 | 31 | 42 | 0.0 | 6.4 | 0.00 | 0.00 | 0.00 | 63 | 1020.8 |
| 20260901210529 | 31 | 335 | 0.0 | 6.4 | 0.00 | 0.00 | 0.00 | 64 | 1020.8 |
| 20260901210429 | 31 | 334 | 0.0 | 6.4 | 0.00 | 0.00 | 0.00 | 65 | 1020.8 |
| 20260901210326 | 30 | 334 | 0.0 | 6.4 | 0.00 | 0.00 | 0.00 | 62 | 1020.8 |
| 20260901210225 | 30 | 334 | 0.0 | 6.4 | 0.00 | 0.00 | 0.00 | 61 | 1020.8 |
| 20260901210125 | 30 | 334 | 0.0 | 6.4 | 0.00 | 0.00 | 0.00 | 62 | 1020.8 |
| 20260901210022 | 30 | 334 | 0.0 | 6.4 | 0.00 | 0.00 | 0.00 | 63 | 1020.8 |
| 20260901205923 | 30 | 341 | 0.0 | 6.4 | 0.00 | 0.00 | 0.00 | 62 | 1020.8 |
| 20260901205821 | 30 | 333 | 0.0 | 6.4 | 0.00 | 0.00 | 0.00 | 62 | 1020.9 |
| 20260901205719 | 30 | 330 | 0.0 | 3.2 | 0.00 | 0.00 | 0.00 | 63 | 1020.8 |
| 20260901205616 | 30 | 336 | 0.0 | 0.0 | 0.00 | 0.00 | 0.00 | 62 | 1020.8 |
| 20260901205516 | 31 | 344 | 0.0 | 0.0 | 0.00 | 0.00 | 0.00 | 63 | 1020.9 |
| 20260901205417 | 31 | 328 | 0.0 | 0.0 | 0.00 | 0.00 | 0.00 | 63 | 1020.9 |
| 20260901205316 | 31 | 25 | 0.0 | 0.0 | 0.00 | 0.00 | 0.00 | 62 | 1020.8 |
| 20260901205217 | 31 | 25 | 0.0 | 0.0 | 0.00 | 0.00 | 0.00 | 65 | 1020.9 |
| 20260901205112 | 31 | 355 | 0.0 | 0.0 | 0.00 | 0.00 | 0.00 | 63 | 1021.0 |
| 20260901205010 | 31 | 0 | 0.0 | 0.0 | 0.00 | 0.00 | 0.00 | 64 | 1020.9 |
| 20260901204911 | 31 | 5 | 0.0 | 0.0 | 0.00 | 0.00 | 0.00 | 66 | 1020.9 |
| 20260901204811 | 31 | 331 | 0.0 | 0.0 | 0.00 | 0.00 | 0.00 | 64 | 1020.9 |
| 20260901204710 | 31 | 355 | 0.0 | 0.0 | 0.00 | 0.00 | 0.00 | 65 | 1020.9 |
| 20260901204605 | 31 | 355 | 0.0 | 0.0 | 0.00 | 0.00 | 0.00 | 62 | 1020.8 |
| 20260901204504 | 31 | 355 | 0.0 | 0.0 | 0.00 | 0.00 | 0.00 | 64 | 1021.0 |
| 20260901204404 | 31 | 336 | 0.0 | 0.0 | 0.00 | 0.00 | 0.00 | 64 | 1020.9 |
| 20260901204304 | 31 | 23 | 0.0 | 0.0 | 0.00 | 0.00 | 0.00 | 64 | 1020.9 |
| 20260901204205 | 31 | 25 | 0.0 | 0.0 | 0.00 | 0.00 | 0.00 | 64 | 1020.9 |
| 20260901204104 | 31 | 26 | 0.0 | 4.8 | 0.00 | 0.00 | 0.00 | 63 | 1021.0 |
| 20260901204001 | 31 | 25 | 0.0 | 4.8 | 0.00 | 0.00 | 0.00 | 63 | 1020.9 |
| 20260901203902 | 30 | 315 | 0.0 | 4.8 | 0.00 | 0.00 | 0.00 | 62 | 1020.9 |
| 20260901203801 | 30 | 315 | 0.0 | 4.8 | 0.00 | 0.00 | 0.00 | 63 | 1020.9 |
| 20260901203702 | 30 | 348 | 0.0 | 4.8 | 0.00 | 0.00 | 0.00 | 64 | 1021.0 |
| 20260901203603 | 30 | 348 | 0.0 | 4.8 | 0.00 | 0.00 | 0.00 | 63 | 1020.9 |
| 20260901203500 | 30 | 349 | 0.0 | 4.8 | 0.00 | 0.00 | 0.00 | 64 | 1021.0 |
| 20260901203400 | 30 | 343 | 0.0 | 4.8 | 0.00 | 0.00 | 0.00 | 63 | 1020.9 |
| 20260901203258 | 30 | 343 | 0.0 | 4.8 | 0.00 | 0.00 | 0.00 | 64 | 1021.0 |
| 20260901203157 | 30 | 355 | 0.0 | 4.8 | 0.00 | 0.00 | 0.00 | 65 | 1021.0 |
| 20260901203058 | 30 | 296 | 0.0 | 3.2 | 0.00 | 0.00 | 0.00 | 63 | 1021.0 |
| 20260901202959 | 30 | 321 | 0.0 | 3.2 | 0.00 | 0.00 | 0.00 | 63 | 1021.0 |
| 20260901202857 | 30 | 331 | 0.0 | 3.2 | 0.00 | 0.00 | 0.00 | 65 | 1020.9 |
| 20260901202757 | 30 | 325 | 0.0 | 1.6 | 0.00 | 0.00 | 0.00 | 65 | 1021.0 |
| 20260901202656 | 30 | 355 | 0.0 | 0.0 | 0.00 | 0.00 | 0.00 | 64 | 1021.0 |
| 20260901202556 | 30 | 355 | 0.0 | 0.0 | 0.00 | 0.00 | 0.00 | 63 | 1020.9 |
| 20260901202456 | 30 | 355 | 0.0 | 0.0 | 0.00 | 0.00 | 0.00 | 66 | 1021.0 |
| 20260901202351 | 30 | 32 | 0.0 | 0.0 | 0.00 | 0.00 | 0.00 | 63 | 1021.0 |
| 20260901202251 | 30 | 23 | 0.0 | 0.0 | 0.00 | 0.00 | 0.00 | 65 | 1020.9 |
| 20260901202149 | 30 | 23 | 0.0 | 0.0 | 0.00 | 0.00 | 0.00 | 62 | 1021.0 |
| 20260901202050 | 30 | 23 | 0.0 | 0.0 | 0.00 | 0.00 | 0.00 | 66 | 1021.0 |
| 20260901201950 | 30 | 36 | 0.0 | 1.6 | 0.00 | 0.00 | 0.00 | 66 | 1020.9 |
| 20260901201851 | 30 | 31 | 0.0 | 1.6 | 0.00 | 0.00 | 0.00 | 64 | 1020.9 |
| 20260901201749 | 30 | 30 | 0.0 | 1.6 | 0.00 | 0.00 | 0.00 | 64 | 1020.9 |
| 20260901201647 | 30 | 30 | 0.0 | 1.6 | 0.00 | 0.00 | 0.00 | 64 | 1020.9 |
| 20260901201547 | 30 | 22 | 0.0 | 1.6 | 0.00 | 0.00 | 0.00 | 66 | 1021.0 |
| 20260901201444 | 30 | 38 | 0.0 | 1.6 | 0.00 | 0.00 | 0.00 | 64 | 1021.0 |
| 20260901201337 | 30 | 9 | 0.0 | 3.2 | 0.00 | 0.00 | 0.00 | 65 | 1020.9 |
| 20260901201239 | 30 | 9 | 0.0 | 3.2 | 0.00 | 0.00 | 0.00 | 65 | 1020.9 |
| 20260901201135 | 30 | 11 | 0.0 | 3.2 | 0.00 | 0.00 | 0.00 | 66 | 1021.0 |
| 20260901201035 | 30 | 319 | 0.0 | 3.2 | 0.00 | 0.00 | 0.00 | 65 | 1021.0 |
| 20260901200935 | 30 | 9 | 0.0 | 3.2 | 0.00 | 0.00 | 0.00 | 64 | 1021.0 |
| 20260901200836 | 30 | 9 | 0.0 | 3.2 | 0.00 | 0.00 | 0.00 | 65 | 1021.0 |
| 20260901200735 | 30 | 5 | 0.0 | 6.4 | 0.00 | 0.00 | 0.00 | 63 | 1021.1 |
| 20260901200636 | 31 | 5 | 0.0 | 6.4 | 0.00 | 0.00 | 0.00 | 66 | 1021.0 |
| 20260901200535 | 31 | 344 | 0.0 | 6.4 | 0.00 | 0.00 | 0.00 | 65 | 1021.1 |
| 20260901200431 | 31 | 343 | 0.0 | 6.4 | 0.00 | 0.00 | 0.00 | 64 | 1021.1 |
| 20260901200332 | 31 | 355 | 0.0 | 8.0 | 0.00 | 0.00 | 0.00 | 65 | 1021.1 |
| 20260901200231 | 31 | 355 | 0.0 | 8.0 | 0.00 | 0.00 | 0.00 | 63 | 1021.1 |
| 20260901200132 | 31 | 344 | 0.0 | 8.0 | 0.00 | 0.00 | 0.00 | 64 | 1021.0 |
| 20260901200031 | 31 | 345 | 1.6 | 8.0 | 0.00 | 0.00 | 0.00 | 64 | 1021.1 |
| 20260901195932 | 31 | 355 | 1.6 | 8.0 | 0.00 | 0.00 | 0.00 | 63 | 1021.1 |
| 20260901195831 | 31 | 346 | 1.6 | 8.0 | 0.00 | 0.00 | 0.00 | 65 | 1021.2 |
| 20260901195732 | 31 | 317 | 1.6 | 8.0 | 0.00 | 0.00 | 0.00 | 64 | 1021.2 |
| 20260901195633 | 31 | 25 | 1.6 | 8.0 | 0.00 | 0.00 | 0.00 | 64 | 1021.2 |
| 20260901195529 | 31 | 24 | 1.6 | 8.0 | 0.00 | 0.00 | 0.00 | 67 | 1021.2 |
| 20260901195429 | 31 | 322 | 1.6 | 8.0 | 0.00 | 0.00 | 0.00 | 66 | 1021.2 |
| 20260901195330 | 31 | 5 | 0.0 | 8.0 | 0.00 | 0.00 | 0.00 | 67 | 1021.2 |
| 20260901195231 | 31 | 30 | 1.6 | 8.0 | 0.00 | 0.00 | 0.00 | 65 | 1021.2 |
| 20260901195126 | 31 | 347 | 1.6 | 8.0 | 0.00 | 0.00 | 0.00 | 65 | 1021.2 |
| 20260901195024 | 31 | 38 | 0.0 | 8.0 | 0.00 | 0.00 | 0.00 | 65 | 1021.2 |
| 20260901194925 | 31 | 25 | 0.0 | 6.4 | 0.00 | 0.00 | 0.00 | 64 | 1021.3 |
| 20260901194824 | 31 | 42 | 0.0 | 9.7 | 0.00 | 0.03 | 0.00 | 65 | 1021.2 |
| 20260901194725 | 31 | 67 | 0.0 | 9.7 | 0.00 | 0.03 | 0.00 | 65 | 1021.3 |
| 20260901194625 | 31 | 70 | 0.0 | 9.7 | 0.00 | 0.03 | 0.00 | 63 | 1021.2 |
| 20260901194521 | 31 | 45 | 0.0 | 9.7 | 0.00 | 0.03 | 0.00 | 63 | 1021.3 |
| 20260901194423 | 31 | 30 | 0.0 | 9.7 | 0.00 | 0.03 | 0.00 | 65 | 1021.3 |
| 20260901194321 | 31 | 16 | 0.0 | 9.7 | 0.00 | 0.03 | 0.00 | 65 | 1021.3 |
| 20260901194219 | 31 | 38 | 0.0 | 9.7 | 0.00 | 0.03 | 0.00 | 66 | 1021.3 |
| 20260901194112 | 31 | 344 | 1.6 | 9.7 | 0.00 | 0.03 | 0.00 | 65 | 1021.3 |
| 20260901194012 | 31 | 344 | 1.6 | 9.7 | 0.00 | 0.03 | 0.00 | 64 | 1021.3 |
| 20260901193912 | 31 | 23 | 1.6 | 9.7 | 0.00 | 0.03 | 0.00 | 63 | 1021.3 |
| 20260901193811 | 31 | 23 | 1.6 | 9.7 | 0.00 | 0.03 | 0.00 | 64 | 1021.3 |
| 20260901193709 | 31 | 331 | 1.6 | 9.7 | 0.00 | 0.05 | 0.00 | 65 | 1021.3 |
| 20260901193605 | 31 | 311 | 1.6 | 9.7 | 0.00 | 0.08 | 0.00 | 62 | 1021.3 |
| 20260901193501 | 31 | 311 | 1.6 | 9.7 | 0.00 | 0.10 | 0.00 | 63 | 1021.3 |
| 20260901193401 | 31 | 310 | 1.6 | 9.7 | 0.00 | 0.13 | 0.00 | 65 | 1021.3 |
| 20260901193303 | 31 | 331 | 1.6 | 9.7 | 0.00 | 0.13 | 0.00 | 66 | 1021.4 |
| 20260901193203 | 30 | 339 | 1.6 | 9.7 | 0.00 | 0.13 | 0.00 | 66 | 1021.3 |
| 20260901193103 | 30 | 329 | 1.6 | 9.7 | 0.00 | 0.15 | 0.00 | 66 | 1021.3 |
| 20260901193001 | 30 | 316 | 1.6 | 9.7 | 0.00 | 0.15 | 0.00 | 63 | 1021.4 |
| 20260901192902 | 30 | 328 | 1.6 | 8.0 | 0.00 | 0.15 | 0.00 | 65 | 1021.3 |
| 20260901192801 | 30 | 329 | 1.6 | 6.4 | 0.00 | 0.18 | 0.00 | 64 | 1021.4 |
| 20260901192703 | 30 | 329 | 1.6 | 6.4 | 0.00 | 0.18 | 0.00 | 67 | 1021.4 |
| 20260901192601 | 30 | 329 | 1.6 | 6.4 | 0.00 | 0.23 | 0.00 | 66 | 1021.4 |
| 20260901192501 | 30 | 328 | 1.6 | 6.4 | 0.00 | 0.25 | 0.00 | 64 | 1021.4 |
| 20260901192359 | 30 | 326 | 1.6 | 6.4 | 0.00 | 0.25 | 0.00 | 65 | 1021.5 |
| 20260901192306 | 30 | 304 | 1.6 | 6.4 | 0.00 | 0.28 | 0.00 | 67 | 1021.4 |
| 20260901192159 | 30 | 338 | 1.6 | 6.4 | 0.00 | 0.30 | 0.00 | 66 | 1021.5 |
| 20260901192101 | 30 | 5 | 0.0 | 6.4 | 0.00 | 0.36 | 0.00 | 66 | 1021.4 |
| 20260901192000 | 30 | 59 | 0.0 | 6.4 | 0.00 | 0.38 | 0.00 | 63 | 1021.5 |
| 20260901191855 | 30 | 41 | 0.0 | 6.4 | 0.00 | 0.38 | 0.00 | 63 | 1021.5 |
| 20260901191754 | 30 | 34 | 0.0 | 6.4 | 0.00 | 0.38 | 0.00 | 64 | 1021.5 |
| 20260901191656 | 30 | 35 | 0.0 | 4.8 | 0.00 | 0.38 | 0.00 | 66 | 1021.5 |
| 20260901191555 | 30 | 42 | 0.0 | 4.8 | 0.00 | 0.38 | 0.00 | 63 | 1021.5 |
| 20260901191453 | 30 | 37 | 0.0 | 6.4 | 0.00 | 0.38 | 0.00 | 65 | 1021.4 |
| 20260901191354 | 30 | 67 | 0.0 | 6.4 | 0.00 | 0.38 | 0.00 | 64 | 1021.5 |
| 20260901191254 | 30 | 348 | 0.0 | 6.4 | 0.00 | 0.38 | 0.00 | 65 | 1021.4 |
| 20260901191154 | 30 | 5 | 0.0 | 6.4 | 0.00 | 0.38 | 0.00 | 65 | 1021.5 |
| 20260901191053 | 30 | 355 | 0.0 | 6.4 | 0.00 | 0.38 | 0.00 | 65 | 1021.4 |
| 20260901190953 | 30 | 355 | 0.0 | 6.4 | 0.00 | 0.38 | 0.00 | 65 | 1021.5 |
| 20260901190854 | 30 | 351 | 0.0 | 6.4 | 0.00 | 0.38 | 0.00 | 66 | 1021.4 |
| 20260901190752 | 30 | 288 | 1.6 | 6.4 | 0.00 | 0.38 | 0.00 | 64 | 1021.4 |
| 20260901190647 | 30 | 288 | 1.6 | 6.4 | 0.00 | 0.38 | 0.00 | 63 | 1021.5 |
| 20260901190548 | 30 | 288 | 1.6 | 9.7 | 0.00 | 0.38 | 0.00 | 65 | 1021.5 |
| 20260901190447 | 30 | 301 | 1.6 | 9.7 | 0.00 | 0.38 | 0.00 | 64 | 1021.5 |
| 20260901190346 | 30 | 336 | 1.6 | 9.7 | 0.00 | 0.38 | 0.00 | 63 | 1021.5 |
| 20260901190248 | 30 | 336 | 1.6 | 9.7 | 0.00 | 0.38 | 0.00 | 66 | 1021.5 |
| 20260901190146 | 30 | 351 | 1.6 | 9.7 | 0.00 | 0.38 | 0.00 | 65 | 1021.6 |
| 20260901190047 | 30 | 313 | 1.6 | 9.7 | 0.00 | 0.38 | 0.00 | 66 | 1021.6 |
| 20260901185947 | 30 | 306 | 1.6 | 9.7 | 0.00 | 0.38 | 0.00 | 64 | 1021.6 |
| 20260901185847 | 30 | 297 | 1.6 | 9.7 | 0.00 | 0.38 | 0.00 | 64 | 1021.5 |
| 20260901185747 | 30 | 315 | 1.6 | 9.7 | 0.00 | 0.38 | 0.00 | 64 | 1021.5 |
| 20260901185658 | 30 | 346 | 1.6 | 9.7 | 0.00 | 0.38 | 0.00 | 65 | 1021.6 |
| 20260901185547 | 30 | 23 | 1.6 | 9.7 | 0.00 | 0.38 | 0.00 | 65 | 1021.5 |
| 20260901185447 | 30 | 36 | 1.6 | 12.9 | 0.00 | 0.38 | 0.00 | 66 | 1021.6 |
| 20260901185348 | 30 | 9 | 1.6 | 12.9 | 0.00 | 0.38 | 0.00 | 65 | 1021.6 |
| 20260901185246 | 30 | 5 | 1.6 | 12.9 | 0.00 | 0.38 | 0.00 | 66 | 1021.6 |
| 20260901185147 | 30 | 17 | 1.6 | 12.9 | 0.00 | 0.38 | 0.00 | 64 | 1021.6 |
| 20260901185048 | 30 | 334 | 1.6 | 12.9 | 0.00 | 0.38 | 0.00 | 64 | 1021.6 |
| 20260901184947 | 30 | 331 | 1.6 | 12.9 | 0.00 | 0.38 | 0.00 | 65 | 1021.7 |
| 20260901184846 | 30 | 313 | 1.6 | 12.9 | 0.00 | 0.38 | 0.00 | 65 | 1021.6 |
| 20260901184748 | 30 | 26 | 1.6 | 12.9 | 0.00 | 0.38 | 0.00 | 65 | 1021.6 |
| 20260901184648 | 30 | 9 | 1.6 | 12.9 | 0.00 | 0.38 | 0.00 | 66 | 1021.6 |
| 20260901184547 | 30 | 332 | 1.6 | 12.9 | 0.00 | 0.38 | 0.00 | 68 | 1021.7 |
| 20260901184448 | 30 | 336 | 1.6 | 9.7 | 0.00 | 0.38 | 0.00 | 67 | 1021.7 |
| 20260901184347 | 30 | 355 | 1.6 | 9.7 | 0.00 | 0.38 | 0.00 | 66 | 1021.7 |
| 20260901184247 | 30 | 45 | 1.6 | 9.7 | 0.00 | 0.38 | 0.00 | 69 | 1021.9 |
| 20260901184148 | 30 | 37 | 1.6 | 9.7 | 0.00 | 0.38 | 0.00 | 68 | 1021.7 |
| 20260901184048 | 30 | 351 | 1.6 | 9.7 | 0.00 | 0.38 | 0.00 | 66 | 1021.7 |
| 20260901183947 | 30 | 351 | 1.6 | 9.7 | 0.00 | 0.38 | 0.00 | 65 | 1021.7 |
| 20260901183846 | 30 | 350 | 1.6 | 9.7 | 0.00 | 0.38 | 0.00 | 65 | 1021.7 |
| 20260901183747 | 30 | 343 | 1.6 | 9.7 | 0.00 | 0.38 | 0.00 | 67 | 1021.9 |
| 20260901183646 | 30 | 5 | 1.6 | 6.4 | 0.00 | 0.38 | 0.00 | 67 | 1021.9 |
| 20260901183548 | 30 | 342 | 1.6 | 6.4 | 0.00 | 0.38 | 0.00 | 68 | 1021.7 |
| 20260901183448 | 30 | 40 | 1.6 | 6.4 | 0.00 | 0.38 | 0.00 | 65 | 1021.7 |
| 20260901183345 | 30 | 35 | 0.0 | 6.4 | 0.00 | 0.38 | 0.00 | 66 | 1021.7 |
| 20260901183243 | 30 | 348 | 0.0 | 6.4 | 0.00 | 0.38 | 0.00 | 69 | 1021.7 |
| 20260901183145 | 30 | 25 | 0.0 | 6.4 | 0.00 | 0.38 | 0.00 | 68 | 1021.7 |
| 20260901183043 | 30 | 319 | 0.0 | 6.4 | 0.00 | 0.38 | 0.00 | 69 | 1021.6 |
| 20260901182943 | 30 | 280 | 0.0 | 6.4 | 0.00 | 0.38 | 0.00 | 69 | 1021.7 |
| 20260901182844 | 30 | 327 | 0.0 | 4.8 | 0.00 | 0.38 | 0.00 | 69 | 1021.9 |
| 20260901182743 | 30 | 328 | 1.6 | 8.0 | 0.00 | 0.38 | 0.00 | 67 | 1021.7 |
| 20260901182642 | 30 | 335 | 1.6 | 12.9 | 0.00 | 0.38 | 0.00 | 68 | 1021.7 |
| 20260901182544 | 30 | 334 | 1.6 | 12.9 | 0.00 | 0.38 | 0.00 | 67 | 1021.9 |
| 20260901182443 | 30 | 355 | 1.6 | 12.9 | 0.00 | 0.38 | 0.00 | 67 | 1021.9 |
| 20260901182342 | 30 | 350 | 1.6 | 12.9 | 0.00 | 0.38 | 0.00 | 65 | 1021.9 |
| 20260901182243 | 30 | 355 | 1.6 | 12.9 | 0.00 | 0.38 | 0.00 | 65 | 1021.9 |
| 20260901182144 | 30 | 319 | 1.6 | 12.9 | 0.00 | 0.38 | 0.00 | 65 | 1021.9 |
| 20260901182044 | 30 | 315 | 3.2 | 12.9 | 0.00 | 0.38 | 0.00 | 67 | 1021.7 |
| 20260901181943 | 30 | 307 | 3.2 | 12.9 | 0.00 | 0.38 | 0.00 | 66 | 1021.7 |
| 20260901181843 | 30 | 320 | 3.2 | 12.9 | 0.00 | 0.38 | 0.00 | 66 | 1021.9 |
| 20260901181744 | 30 | 315 | 1.6 | 12.9 | 0.00 | 0.38 | 0.00 | 66 | 1021.9 |
| 20260901181643 | 30 | 347 | 1.6 | 9.7 | 0.00 | 0.38 | 0.00 | 67 | 1021.6 |
| 20260901181542 | 30 | 40 | 1.6 | 9.7 | 0.00 | 0.38 | 0.00 | 66 | 1021.9 |
| 20260901181443 | 30 | 79 | 1.6 | 9.7 | 0.00 | 0.38 | 0.00 | 68 | 1021.9 |
| 20260901181344 | 30 | 10 | 1.6 | 9.7 | 0.00 | 0.38 | 0.00 | 67 | 1021.9 |
| 20260901181243 | 30 | 5 | 1.6 | 9.7 | 0.00 | 0.38 | 0.00 | 68 | 1021.9 |
| 20260901181144 | 30 | 350 | 0.0 | 9.7 | 0.00 | 0.38 | 0.00 | 67 | 1021.7 |
| 20260901181042 | 30 | 348 | 0.0 | 6.4 | 0.00 | 0.38 | 0.00 | 68 | 1021.9 |
| 20260901180944 | 30 | 344 | 0.0 | 4.8 | 0.00 | 0.38 | 0.00 | 67 | 1022.0 |
| 20260901180844 | 30 | 31 | 0.0 | 0.0 | 0.00 | 0.38 | 0.00 | 69 | 1021.9 |
| 20260901180734 | 30 | 28 | 0.0 | 0.0 | 0.00 | 0.38 | 0.00 | 69 | 1022.0 |
| 20260901180635 | 30 | 38 | 0.0 | 0.0 | 0.00 | 0.38 | 0.00 | 67 | 1021.9 |
| 20260901180535 | 30 | 38 | 0.0 | 0.0 | 0.00 | 0.38 | 0.00 | 66 | 1022.0 |
| 20260901180436 | 30 | 38 | 0.0 | 0.0 | 0.00 | 0.38 | 0.00 | 66 | 1022.0 |
| 20260901180335 | 29 | 38 | 0.0 | 0.0 | 0.00 | 0.38 | 0.00 | 66 | 1022.0 |
| 20260901180235 | 29 | 38 | 0.0 | 0.0 | 0.00 | 0.38 | 0.00 | 68 | 1022.0 |
| 20260901180136 | 29 | 26 | 0.0 | 0.0 | 0.00 | 0.38 | 0.00 | 66 | 1022.0 |
| 20260901180035 | 29 | 12 | 0.0 | 0.0 | 0.00 | 0.38 | 0.00 | 66 | 1022.1 |
| 20260901175935 | 29 | 5 | 0.0 | 0.0 | 0.00 | 0.38 | 0.00 | 67 | 1022.0 |
| 20260901175835 | 29 | 311 | 0.0 | 0.0 | 0.00 | 0.38 | 0.00 | 67 | 1022.0 |
| 20260901175736 | 29 | 274 | 0.0 | 0.0 | 0.00 | 0.38 | 0.00 | 68 | 1021.9 |
| 20260901175635 | 29 | 320 | 0.0 | 0.0 | 0.00 | 0.38 | 0.00 | 69 | 1022.1 |
| 20260901175535 | 29 | 355 | 0.0 | 0.0 | 0.00 | 0.38 | 0.00 | 68 | 1022.0 |
| 20260901175436 | 29 | 342 | 0.0 | 0.0 | 0.00 | 0.38 | 0.00 | 67 | 1022.0 |
| 20260901175335 | 29 | 5 | 0.0 | 0.0 | 0.00 | 0.38 | 0.00 | 67 | 1022.0 |
| 20260901175236 | 29 | 26 | 0.0 | 0.0 | 0.00 | 0.38 | 0.00 | 67 | 1022.0 |
| 20260901175136 | 29 | 23 | 0.0 | 0.0 | 0.00 | 0.38 | 0.00 | 68 | 1022.0 |
| 20260901175034 | 29 | 24 | 0.0 | 0.0 | 0.00 | 0.38 | 0.00 | 67 | 1022.0 |
| 20260901174934 | 29 | 318 | 0.0 | 0.0 | 0.00 | 0.38 | 0.00 | 66 | 1022.0 |
| 20260901174835 | 29 | 318 | 0.0 | 0.0 | 0.00 | 0.38 | 0.00 | 66 | 1022.0 |
| 20260901174735 | 29 | 311 | 0.0 | 0.0 | 0.00 | 0.38 | 0.00 | 68 | 1022.0 |
| 20260901174636 | 29 | 325 | 0.0 | 0.0 | 0.00 | 0.38 | 0.00 | 68 | 1022.0 |
| 20260901174536 | 29 | 331 | 0.0 | 0.0 | 0.00 | 0.38 | 0.00 | 67 | 1022.0 |
| 20260901174436 | 29 | 0 | 0.0 | 0.0 | 0.00 | 0.38 | 0.00 | 68 | 1022.1 |
| 20260901174334 | 29 | 355 | 0.0 | 0.0 | 0.00 | 0.38 | 0.00 | 68 | 1022.1 |
| 20260901174236 | 29 | 5 | 0.0 | 0.0 | 0.00 | 0.38 | 0.00 | 67 | 1022.0 |
| 20260901174135 | 29 | 5 | 0.0 | 0.0 | 0.00 | 0.38 | 0.00 | 69 | 1022.0 |
| 20260901174035 | 29 | 5 | 0.0 | 0.0 | 0.00 | 0.38 | 0.00 | 67 | 1022.0 |
| 20260901173935 | 29 | 5 | 0.0 | 0.0 | 0.00 | 0.38 | 0.00 | 68 | 1022.1 |
| 20260901173835 | 29 | 339 | 0.0 | 0.0 | 0.00 | 0.38 | 0.00 | 71 | 1022.1 |
| 20260901173735 | 29 | 348 | 0.0 | 0.0 | 0.00 | 0.38 | 0.00 | 69 | 1022.1 |
| 20260901173634 | 29 | 355 | 0.0 | 0.0 | 0.00 | 0.38 | 0.00 | 68 | 1022.0 |
| 20260901173536 | 29 | 17 | 0.0 | 0.0 | 0.00 | 0.38 | 0.00 | 68 | 1022.0 |
| 20260901173432 | 29 | 50 | 0.0 | 0.0 | 0.00 | 0.38 | 0.00 | 68 | 1022.1 |
| 20260901173331 | 29 | 26 | 0.0 | 0.0 | 0.00 | 0.38 | 0.00 | 68 | 1022.1 |
| 20260901173230 | 29 | 316 | 0.0 | 0.0 | 0.00 | 0.38 | 0.00 | 67 | 1022.0 |
| 20260901173131 | 29 | 0 | 0.0 | 0.0 | 0.00 | 0.38 | 0.00 | 68 | 1022.0 |
| 20260901173031 | 29 | 19 | 0.0 | 0.0 | 0.00 | 0.38 | 0.00 | 70 | 1022.0 |
| 20260901172932 | 29 | 321 | 0.0 | 0.0 | 0.00 | 0.38 | 0.00 | 67 | 1022.0 |
| 20260901172830 | 29 | 321 | 0.0 | 0.0 | 0.00 | 0.38 | 0.00 | 71 | 1022.1 |
| 20260901172732 | 29 | 329 | 0.0 | 0.0 | 0.00 | 0.38 | 0.00 | 69 | 1022.0 |
| 20260901172631 | 29 | 328 | 0.0 | 0.0 | 0.00 | 0.38 | 0.00 | 71 | 1022.1 |
| 20260901172531 | 29 | 325 | 0.0 | 0.0 | 0.00 | 0.38 | 0.00 | 68 | 1022.1 |
| 20260901172431 | 29 | 319 | 0.0 | 0.0 | 0.00 | 0.38 | 0.00 | 67 | 1022.1 |
| 20260901172330 | 29 | 25 | 0.0 | 0.0 | 0.00 | 0.38 | 0.00 | 66 | 1022.1 |
| 20260901172232 | 29 | 5 | 0.0 | 0.0 | 0.00 | 0.38 | 0.00 | 68 | 1022.1 |
| 20260901172130 | 29 | 5 | 0.0 | 0.0 | 0.00 | 0.38 | 0.00 | 68 | 1022.2 |
| 20260901172032 | 29 | 9 | 0.0 | 0.0 | 0.00 | 0.38 | 0.00 | 67 | 1022.2 |
| 20260901171931 | 29 | 337 | 0.0 | 0.0 | 0.00 | 0.38 | 0.00 | 68 | 1022.2 |
| 20260901171832 | 29 | 325 | 0.0 | 0.0 | 0.00 | 0.38 | 0.00 | 68 | 1022.2 |
| 20260901171732 | 29 | 317 | 0.0 | 0.0 | 0.00 | 0.38 | 0.00 | 67 | 1022.2 |
| 20260901171630 | 29 | 313 | 0.0 | 0.0 | 0.00 | 0.38 | 0.00 | 69 | 1022.2 |
| 20260901171531 | 29 | 330 | 0.0 | 0.0 | 0.00 | 0.38 | 0.00 | 68 | 1022.2 |
| 20260901171432 | 29 | 325 | 0.0 | 0.0 | 0.00 | 0.38 | 0.00 | 68 | 1022.2 |
| 20260901171332 | 29 | 312 | 0.0 | 0.0 | 0.00 | 0.38 | 0.00 | 68 | 1022.2 |
| 20260901171232 | 29 | 338 | 0.0 | 0.0 | 0.00 | 0.38 | 0.00 | 67 | 1022.2 |
| 20260901171131 | 29 | 303 | 0.0 | 0.0 | 0.00 | 0.38 | 0.00 | 66 | 1022.2 |
| 20260901171031 | 29 | 280 | 0.0 | 0.0 | 0.00 | 0.38 | 0.00 | 70 | 1022.2 |
| 20260901170931 | 29 | 323 | 0.0 | 0.0 | 0.00 | 0.38 | 0.00 | 69 | 1022.2 |
| 20260901170831 | 29 | 284 | 0.0 | 0.0 | 0.00 | 0.38 | 0.00 | 66 | 1022.3 |
| 20260901170732 | 29 | 315 | 0.0 | 0.0 | 0.00 | 0.38 | 0.00 | 66 | 1022.2 |
| 20260901170631 | 29 | 333 | 0.0 | 0.0 | 0.00 | 0.38 | 0.00 | 68 | 1022.2 |
| 20260901170531 | 29 | 310 | 0.0 | 0.0 | 0.00 | 0.38 | 0.00 | 66 | 1022.2 |
| 20260901170431 | 29 | 343 | 0.0 | 0.0 | 0.00 | 0.38 | 0.00 | 67 | 1022.3 |
| 20260901170332 | 29 | 307 | 0.0 | 0.0 | 0.00 | 0.38 | 0.00 | 67 | 1022.2 |
| 20260901170232 | 29 | 331 | 0.0 | 0.0 | 0.00 | 0.38 | 0.00 | 67 | 1022.2 |
| 20260901170130 | 29 | 309 | 0.0 | 0.0 | 0.00 | 0.38 | 0.00 | 68 | 1022.3 |
| 20260901170032 | 29 | 338 | 0.0 | 0.0 | 0.00 | 0.38 | 0.00 | 67 | 1022.3 |
| 20260901165932 | 29 | 10 | 0.0 | 0.0 | 0.00 | 0.38 | 0.00 | 69 | 1022.3 |
| 20260901165830 | 29 | 304 | 0.0 | 0.0 | 0.00 | 0.38 | 0.00 | 71 | 1022.3 |
| 20260901165730 | 29 | 305 | 0.0 | 0.0 | 0.00 | 0.38 | 0.00 | 67 | 1022.3 |
| 20260901165632 | 29 | 304 | 0.0 | 0.0 | 0.00 | 0.38 | 0.00 | 66 | 1022.3 |
| 20260901165528 | 29 | 304 | 0.0 | 0.0 | 0.00 | 0.38 | 0.00 | 67 | 1022.2 |
| 20260901165429 | 29 | 279 | 0.0 | 0.0 | 0.00 | 0.38 | 0.00 | 66 | 1022.3 |
| 20260901165328 | 29 | 34 | 0.0 | 0.0 | 0.00 | 0.38 | 0.00 | 68 | 1022.3 |
| 20260901165227 | 29 | 46 | 0.0 | 0.0 | 0.00 | 0.38 | 0.00 | 68 | 1022.4 |
| 20260901165127 | 29 | 355 | 0.0 | 0.0 | 0.00 | 0.38 | 0.00 | 67 | 1022.3 |
| 20260901165028 | 29 | 355 | 0.0 | 0.0 | 0.00 | 0.38 | 0.00 | 68 | 1022.3 |
| 20260901164923 | 29 | 355 | 0.0 | 0.0 | 0.00 | 0.38 | 0.00 | 67 | 1022.4 |
| 20260901164820 | 29 | 306 | 0.0 | 0.0 | 0.00 | 0.38 | 0.00 | 66 | 1022.3 |
| 20260901164721 | 28 | 306 | 0.0 | 0.0 | 0.00 | 0.38 | 0.00 | 68 | 1022.4 |
| 20260901164620 | 28 | 55 | 0.0 | 0.0 | 0.00 | 0.38 | 0.00 | 68 | 1022.4 |
| 20260901164517 | 28 | 56 | 0.0 | 0.0 | 0.00 | 0.38 | 0.00 | 69 | 1022.4 |
| 20260901164414 | 28 | 308 | 0.0 | 0.0 | 0.00 | 0.38 | 0.00 | 66 | 1022.4 |
| 20260901164311 | 28 | 309 | 0.0 | 0.0 | 0.00 | 0.38 | 0.00 | 65 | 1022.5 |
| 20260901164212 | 28 | 307 | 0.0 | 0.0 | 0.00 | 0.38 | 0.00 | 66 | 1022.5 |
| 20260901164111 | 28 | 307 | 0.0 | 0.0 | 0.00 | 0.38 | 0.00 | 66 | 1022.5 |
| 20260901164012 | 28 | 281 | 0.0 | 0.0 | 0.00 | 0.38 | 0.00 | 67 | 1022.6 |
| 20260901163905 | 28 | 279 | 0.0 | 0.0 | 0.00 | 0.38 | 0.00 | 65 | 1022.6 |
| 20260901163805 | 28 | 290 | 0.0 | 0.0 | 0.00 | 0.38 | 0.00 | 64 | 1022.5 |
| 20260901163707 | 28 | 312 | 0.0 | 0.0 | 0.00 | 0.38 | 0.00 | 66 | 1022.5 |
| 20260901163605 | 28 | 331 | 0.0 | 0.0 | 0.00 | 0.38 | 0.00 | 67 | 1022.5 |
| 20260901163506 | 28 | 339 | 0.0 | 0.0 | 0.00 | 0.38 | 0.00 | 68 | 1022.5 |
| 20260901163358 | 28 | 313 | 0.0 | 0.0 | 0.00 | 0.38 | 0.00 | 67 | 1022.6 |
| 20260901163257 | 28 | 350 | 0.0 | 0.0 | 0.00 | 0.38 | 0.00 | 68 | 1022.6 |
| 20260901163155 | 28 | 355 | 0.0 | 0.0 | 0.00 | 0.38 | 0.00 | 66 | 1022.5 |
| 20260901163057 | 28 | 344 | 0.0 | 0.0 | 0.00 | 0.38 | 0.00 | 67 | 1022.6 |
| 20260901162956 | 28 | 308 | 0.0 | 0.0 | 0.00 | 0.38 | 0.00 | 65 | 1022.6 |
| 20260901162850 | 28 | 309 | 0.0 | 0.0 | 0.00 | 0.38 | 0.00 | 64 | 1022.6 |
| 20260901162749 | 28 | 330 | 0.0 | 0.0 | 0.00 | 0.38 | 0.00 | 64 | 1022.5 |
| 20260901162650 | 28 | 329 | 0.0 | 0.0 | 0.00 | 0.38 | 0.00 | 65 | 1022.6 |
| 20260901162551 | 28 | 329 | 0.0 | 0.0 | 0.00 | 0.38 | 0.00 | 64 | 1022.6 |
| 20260901162450 | 28 | 318 | 0.0 | 0.0 | 0.00 | 0.38 | 0.00 | 65 | 1022.6 |
| 20260901162347 | 28 | 347 | 0.0 | 0.0 | 0.00 | 0.38 | 0.00 | 65 | 1022.6 |
| 20260901162243 | 28 | 346 | 0.0 | 0.0 | 0.00 | 0.38 | 0.00 | 63 | 1022.7 |
| 20260901162144 | 28 | 339 | 0.0 | 0.0 | 0.00 | 0.38 | 0.00 | 64 | 1022.6 |
| 20260901162045 | 28 | 331 | 0.0 | 0.0 | 0.00 | 0.38 | 0.00 | 64 | 1022.7 |
| 20260901161944 | 28 | 309 | 0.0 | 0.0 | 0.00 | 0.38 | 0.00 | 63 | 1022.7 |
| 20260901161836 | 28 | 346 | 0.0 | 0.0 | 0.00 | 0.38 | 0.00 | 67 | 1022.7 |
| 20260901161733 | 28 | 303 | 0.0 | 0.0 | 0.00 | 0.38 | 0.00 | 64 | 1022.7 |
| 20260901161633 | 28 | 302 | 0.0 | 0.0 | 0.00 | 0.38 | 0.00 | 66 | 1022.6 |
| 20260901161534 | 28 | 334 | 0.0 | 0.0 | 0.00 | 0.38 | 0.00 | 67 | 1022.6 |
| 20260901161432 | 28 | 13 | 0.0 | 0.0 | 0.00 | 0.38 | 0.00 | 64 | 1022.7 |
| 20260901161329 | 28 | 13 | 0.0 | 0.0 | 0.00 | 0.38 | 0.00 | 66 | 1022.7 |
| 20260901161230 | 28 | 347 | 0.0 | 0.0 | 0.00 | 0.38 | 0.00 | 67 | 1022.7 |
| 20260901161130 | 28 | 341 | 0.0 | 0.0 | 0.00 | 0.38 | 0.00 | 65 | 1022.7 |
| 20260901161027 | 28 | 340 | 0.0 | 0.0 | 0.00 | 0.38 | 0.00 | 67 | 1022.7 |
| 20260901160925 | 28 | 340 | 0.0 | 0.0 | 0.00 | 0.38 | 0.00 | 65 | 1022.7 |
| 20260901160826 | 28 | 341 | 0.0 | 0.0 | 0.00 | 0.38 | 0.00 | 65 | 1022.7 |
| 20260901160724 | 28 | 341 | 0.0 | 0.0 | 0.00 | 0.38 | 0.00 | 67 | 1022.8 |
| 20260901160622 | 28 | 343 | 0.0 | 0.0 | 0.00 | 0.38 | 0.00 | 67 | 1022.8 |
| 20260901160521 | 28 | 355 | 0.0 | 0.0 | 0.00 | 0.38 | 0.00 | 66 | 1022.8 |
| 20260901160419 | 28 | 355 | 0.0 | 0.0 | 0.00 | 0.38 | 0.00 | 67 | 1022.8 |
| 20260901160311 | 28 | 355 | 0.0 | 0.0 | 0.00 | 0.38 | 0.00 | 67 | 1022.8 |
| 20260901160211 | 28 | 341 | 0.0 | 0.0 | 0.00 | 0.38 | 0.00 | 68 | 1022.8 |
| 20260901160110 | 28 | 334 | 0.0 | 0.0 | 0.00 | 0.38 | 0.00 | 65 | 1022.8 |
| 20260901160011 | 28 | 334 | 0.0 | 0.0 | 0.00 | 0.38 | 0.00 | 66 | 1022.7 |
| 20260901155909 | 28 | 349 | 0.0 | 0.0 | 0.00 | 0.38 | 0.00 | 68 | 1022.8 |
| 20260901155803 | 28 | 340 | 0.0 | 0.0 | 0.00 | 0.38 | 0.00 | 66 | 1022.8 |
| 20260901155703 | 28 | 340 | 0.0 | 0.0 | 0.00 | 0.38 | 0.00 | 65 | 1022.9 |
| 20260901155604 | 28 | 341 | 0.0 | 0.0 | 0.00 | 0.38 | 0.00 | 65 | 1022.8 |
| 20260901155503 | 28 | 339 | 0.0 | 0.0 | 0.00 | 0.38 | 0.00 | 65 | 1022.8 |
| 20260901155404 | 28 | 337 | 0.0 | 0.0 | 0.00 | 0.38 | 0.00 | 66 | 1022.8 |
| 20260901155259 | 28 | 336 | 0.0 | 0.0 | 0.00 | 0.38 | 0.00 | 68 | 1022.8 |
| 20260901155200 | 28 | 306 | 0.0 | 0.0 | 0.00 | 0.38 | 0.00 | 69 | 1022.8 |
| 20260901155059 | 28 | 19 | 0.0 | 0.0 | 0.00 | 0.38 | 0.00 | 69 | 1022.8 |
| 20260901155000 | 28 | 5 | 0.0 | 0.0 | 0.00 | 0.38 | 0.00 | 68 | 1022.9 |
| 20260901154857 | 28 | 343 | 0.0 | 0.0 | 0.00 | 0.38 | 0.00 | 71 | 1022.8 |
| 20260901154748 | 28 | 298 | 0.0 | 0.0 | 0.00 | 0.38 | 0.00 | 68 | 1022.9 |
| 20260901154648 | 28 | 296 | 0.0 | 0.0 | 0.00 | 0.38 | 0.00 | 69 | 1022.9 |
| 20260901154548 | 28 | 296 | 0.0 | 0.0 | 0.00 | 0.38 | 0.00 | 65 | 1022.9 |
| 20260901154448 | 28 | 319 | 0.0 | 0.0 | 0.00 | 0.38 | 0.00 | 67 | 1022.9 |
| 20260901154346 | 28 | 318 | 0.0 | 0.0 | 0.00 | 0.38 | 0.00 | 72 | 1023.0 |
| 20260901154244 | 28 | 5 | 0.0 | 0.0 | 0.00 | 0.38 | 0.00 | 69 | 1022.9 |
| 20260901154144 | 28 | 5 | 0.0 | 0.0 | 0.00 | 0.38 | 0.00 | 69 | 1022.9 |
| 20260901154044 | 28 | 5 | 0.0 | 0.0 | 0.00 | 0.38 | 0.00 | 70 | 1022.9 |
| 20260901153942 | 28 | 0 | 0.0 | 0.0 | 0.00 | 0.38 | 0.00 | 71 | 1023.0 |
| 20260901153839 | 28 | 0 | 0.0 | 0.0 | 0.00 | 0.38 | 0.00 | 69 | 1023.0 |
| 20260901153735 | 28 | 0 | 0.0 | 0.0 | 0.00 | 0.38 | 0.00 | 68 | 1023.0 |
| 20260901153635 | 28 | 5 | 0.0 | 0.0 | 0.00 | 0.38 | 0.00 | 70 | 1022.9 |
| 20260901153536 | 28 | 5 | 0.0 | 0.0 | 0.00 | 0.38 | 0.00 | 68 | 1022.9 |
| 20260901153436 | 28 | 5 | 0.0 | 0.0 | 0.00 | 0.38 | 0.00 | 68 | 1022.9 |
| 20260901153334 | 28 | 5 | 0.0 | 0.0 | 0.00 | 0.38 | 0.00 | 70 | 1023.0 |
| 20260901153229 | 28 | 5 | 0.0 | 0.0 | 0.00 | 0.38 | 0.00 | 72 | 1022.9 |
| 20260901153127 | 28 | 5 | 0.0 | 0.0 | 0.00 | 0.38 | 0.00 | 72 | 1022.9 |
| 20260901153029 | 28 | 5 | 0.0 | 0.0 | 0.00 | 0.38 | 0.00 | 75 | 1022.9 |
| 20260901152925 | 28 | 5 | 0.0 | 0.0 | 0.00 | 0.38 | 0.00 | 73 | 1022.8 |
| 20260901152823 | 28 | 5 | 0.0 | 0.0 | 0.00 | 0.38 | 0.00 | 74 | 1022.9 |
| 20260901152724 | 27 | 5 | 0.0 | 0.0 | 0.00 | 0.38 | 0.00 | 72 | 1022.9 |
| 20260901152622 | 27 | 5 | 0.0 | 0.0 | 0.00 | 0.38 | 0.00 | 73 | 1022.9 |
| 20260901152522 | 27 | 15 | 0.0 | 0.0 | 0.00 | 0.38 | 0.00 | 72 | 1022.9 |
| 20260901152420 | 27 | 15 | 0.0 | 0.0 | 0.00 | 0.38 | 0.00 | 71 | 1023.0 |
| 20260901152317 | 27 | 15 | 0.0 | 0.0 | 0.00 | 0.38 | 0.00 | 70 | 1022.9 |
| 20260901152217 | 27 | 15 | 0.0 | 0.0 | 0.00 | 0.38 | 0.00 | 74 | 1022.9 |
| 20260901152116 | 27 | 16 | 0.0 | 0.0 | 0.00 | 0.38 | 0.00 | 71 | 1022.9 |
| 20260901152015 | 27 | 16 | 0.0 | 0.0 | 0.00 | 0.38 | 0.00 | 73 | 1023.0 |
| 20260901151914 | 27 | 16 | 0.0 | 0.0 | 0.00 | 0.38 | 0.00 | 71 | 1022.9 |
| 20260901151810 | 27 | 16 | 0.0 | 0.0 | 0.00 | 0.38 | 0.00 | 72 | 1022.9 |
| 20260901151701 | 27 | 17 | 0.0 | 0.0 | 0.00 | 0.38 | 0.00 | 71 | 1022.9 |
| 20260901151602 | 27 | 19 | 0.0 | 0.0 | 0.00 | 0.38 | 0.00 | 72 | 1023.0 |
| 20260901151502 | 27 | 21 | 0.0 | 0.0 | 0.00 | 0.38 | 0.00 | 71 | 1023.0 |
| 20260901151401 | 27 | 20 | 0.0 | 0.0 | 0.00 | 0.38 | 0.00 | 73 | 1022.9 |
| 20260901151259 | 27 | 21 | 0.0 | 0.0 | 0.00 | 0.38 | 0.00 | 72 | 1023.0 |
| 20260901151156 | 27 | 15 | 0.0 | 0.0 | 0.00 | 0.38 | 0.00 | 71 | 1023.0 |
| 20260901151053 | 27 | 17 | 0.0 | 0.0 | 0.00 | 0.38 | 0.00 | 74 | 1022.9 |
| 20260901150953 | 27 | 5 | 0.0 | 0.0 | 0.00 | 0.38 | 0.00 | 76 | 1022.9 |
| 20260901150853 | 27 | 327 | 0.0 | 0.0 | 0.00 | 0.38 | 0.00 | 72 | 1022.9 |
| 20260901150754 | 27 | 327 | 0.0 | 0.0 | 0.00 | 0.38 | 0.00 | 72 | 1023.0 |
| 20260901150655 | 27 | 346 | 0.0 | 0.0 | 0.00 | 0.38 | 0.00 | 75 | 1023.0 |
| 20260901150552 | 27 | 28 | 0.0 | 0.0 | 0.00 | 0.38 | 0.00 | 72 | 1023.1 |
| 20260901150451 | 27 | 9 | 0.0 | 0.0 | 0.00 | 0.38 | 0.00 | 74 | 1023.1 |
| 20260901150351 | 27 | 325 | 0.0 | 0.0 | 0.00 | 0.38 | 0.00 | 74 | 1023.0 |
| 20260901150248 | 27 | 327 | 0.0 | 0.0 | 0.00 | 0.38 | 0.00 | 73 | 1023.0 |
| 20260901150139 | 27 | 0 | 0.0 | 0.0 | 0.00 | 0.38 | 0.00 | 73 | 1023.0 |
| 20260901150040 | 27 | 5 | 0.0 | 0.0 | 0.00 | 0.38 | 0.00 | 73 | 1023.1 |
| 20260901145941 | 27 | 318 | 0.0 | 0.0 | 0.00 | 0.38 | 0.00 | 72 | 1023.0 |
| 20260901145840 | 27 | 318 | 0.0 | 0.0 | 0.00 | 0.38 | 0.00 | 73 | 1023.2 |
| 20260901145737 | 27 | 339 | 0.0 | 0.0 | 0.00 | 0.38 | 0.00 | 73 | 1023.1 |
| 20260901145637 | 27 | 337 | 0.0 | 0.0 | 0.00 | 0.38 | 0.00 | 73 | 1023.1 |
| 20260901145536 | 27 | 343 | 0.0 | 0.0 | 0.00 | 0.38 | 0.00 | 73 | 1023.1 |
| 20260901145436 | 27 | 344 | 0.0 | 0.0 | 0.00 | 0.38 | 0.00 | 73 | 1023.1 |
| 20260901145334 | 27 | 5 | 0.0 | 0.0 | 0.00 | 0.38 | 0.00 | 73 | 1023.1 |
| 20260901145232 | 27 | 5 | 0.0 | 0.0 | 0.00 | 0.38 | 0.00 | 75 | 1023.1 |
| 20260901145133 | 27 | 326 | 0.0 | 0.0 | 0.00 | 0.38 | 0.00 | 73 | 1023.1 |
| 20260901145029 | 27 | 325 | 0.0 | 0.0 | 0.00 | 0.38 | 0.00 | 74 | 1023.1 |
| 20260901144929 | 27 | 324 | 0.0 | 0.0 | 0.00 | 0.38 | 0.00 | 75 | 1023.1 |
| 20260901144828 | 27 | 325 | 0.0 | 0.0 | 0.00 | 0.38 | 0.00 | 75 | 1023.1 |
| 20260901144725 | 27 | 349 | 0.0 | 0.0 | 0.00 | 0.38 | 0.00 | 73 | 1023.1 |
| 20260901144620 | 27 | 355 | 0.0 | 0.0 | 0.00 | 0.38 | 0.00 | 76 | 1023.2 |
| 20260901144519 | 27 | 350 | 0.0 | 0.0 | 0.00 | 0.38 | 0.00 | 74 | 1023.1 |
| 20260901144419 | 27 | 348 | 0.0 | 0.0 | 0.00 | 0.38 | 0.00 | 76 | 1023.1 |
| 20260901144316 | 27 | 17 | 0.0 | 0.0 | 0.00 | 0.38 | 0.00 | 76 | 1023.2 |
| 20260901144216 | 27 | 342 | 0.0 | 0.0 | 0.00 | 0.38 | 0.00 | 76 | 1023.1 |
| 20260901144112 | 27 | 335 | 0.0 | 0.0 | 0.00 | 0.38 | 0.00 | 75 | 1023.1 |
| 20260901144012 | 27 | 335 | 0.0 | 0.0 | 0.00 | 0.38 | 0.00 | 76 | 1023.1 |
| 20260901143911 | 27 | 332 | 0.0 | 0.0 | 0.00 | 0.38 | 0.00 | 76 | 1023.2 |
| 20260901143812 | 27 | 333 | 0.0 | 0.0 | 0.00 | 0.38 | 0.00 | 76 | 1023.1 |
| 20260901143709 | 27 | 335 | 0.0 | 0.0 | 0.00 | 0.38 | 0.00 | 76 | 1023.1 |
| 20260901143607 | 27 | 335 | 0.0 | 0.0 | 0.00 | 0.38 | 0.00 | 75 | 1023.1 |
| 20260901143507 | 27 | 315 | 0.0 | 0.0 | 0.00 | 0.38 | 0.00 | 77 | 1023.1 |
| 20260901143407 | 27 | 337 | 0.0 | 0.0 | 0.00 | 0.38 | 0.00 | 76 | 1023.1 |
| 20260901143306 | 27 | 337 | 0.0 | 0.0 | 0.00 | 0.38 | 0.00 | 76 | 1023.1 |
| 20260901143203 | 27 | 331 | 0.0 | 0.0 | 0.00 | 0.38 | 0.00 | 77 | 1023.1 |
| 20260901143057 | 27 | 331 | 0.0 | 0.0 | 0.00 | 0.38 | 0.00 | 76 | 1023.1 |
| 20260901142958 | 27 | 336 | 0.0 | 0.0 | 0.00 | 0.38 | 0.00 | 77 | 1023.1 |
| 20260901142856 | 27 | 338 | 0.0 | 0.0 | 0.00 | 0.38 | 0.00 | 76 | 1023.1 |
| 20260901142756 | 27 | 337 | 0.0 | 0.0 | 0.00 | 0.38 | 0.00 | 77 | 1023.1 |
| 20260901142654 | 27 | 338 | 0.0 | 0.0 | 0.00 | 0.38 | 0.00 | 77 | 1023.1 |
| 20260901142550 | 27 | 337 | 0.0 | 0.0 | 0.00 | 0.38 | 0.00 | 78 | 1023.1 |
| 20260901142447 | 27 | 338 | 0.0 | 0.0 | 0.00 | 0.38 | 0.00 | 78 | 1023.1 |
| 20260901142346 | 27 | 338 | 0.0 | 0.0 | 0.00 | 0.38 | 0.00 | 77 | 1023.1 |
| 20260901142247 | 27 | 338 | 0.0 | 0.0 | 0.00 | 0.38 | 0.00 | 78 | 1023.1 |
| 20260901142147 | 26 | 340 | 0.0 | 0.0 | 0.00 | 0.38 | 0.00 | 77 | 1023.0 |
| 20260901142046 | 26 | 340 | 0.0 | 0.0 | 0.00 | 0.38 | 0.00 | 78 | 1023.0 |
| 20260901141947 | 26 | 340 | 0.0 | 0.0 | 0.00 | 0.38 | 0.00 | 77 | 1023.0 |
| 20260901141845 | 26 | 341 | 0.0 | 0.0 | 0.00 | 0.38 | 0.00 | 76 | 1023.0 |
| 20260901141744 | 26 | 340 | 0.0 | 0.0 | 0.00 | 0.38 | 0.00 | 76 | 1023.1 |
| 20260901141641 | 26 | 342 | 0.0 | 0.0 | 0.00 | 0.38 | 0.00 | 78 | 1023.0 |
| 20260901141535 | 26 | 342 | 0.0 | 0.0 | 0.00 | 0.38 | 0.00 | 77 | 1023.0 |
| 20260901141435 | 26 | 342 | 0.0 | 0.0 | 0.00 | 0.38 | 0.00 | 76 | 1023.0 |
| 20260901141334 | 26 | 342 | 0.0 | 0.0 | 0.00 | 0.38 | 0.00 | 76 | 1023.0 |
| 20260901141233 | 26 | 331 | 0.0 | 0.0 | 0.00 | 0.38 | 0.00 | 76 | 1023.0 |
| 20260901141132 | 26 | 319 | 0.0 | 0.0 | 0.00 | 0.38 | 0.00 | 75 | 1023.0 |
| 20260901141029 | 26 | 327 | 0.0 | 0.0 | 0.00 | 0.38 | 0.00 | 77 | 1023.0 |
| 20260901140930 | 26 | 329 | 0.0 | 0.0 | 0.00 | 0.38 | 0.00 | 77 | 1023.0 |
| 20260901140830 | 26 | 330 | 0.0 | 0.0 | 0.00 | 0.38 | 0.00 | 77 | 1023.0 |
| 20260901140727 | 26 | 329 | 0.0 | 0.0 | 0.00 | 0.38 | 0.00 | 76 | 1023.0 |
| 20260901140626 | 26 | 321 | 0.0 | 0.0 | 0.00 | 0.38 | 0.00 | 76 | 1023.0 |
| 20260901140525 | 26 | 319 | 0.0 | 0.0 | 0.00 | 0.38 | 0.00 | 76 | 1023.0 |
| 20260901140424 | 26 | 322 | 0.0 | 0.0 | 0.00 | 0.38 | 0.00 | 76 | 1023.0 |
| 20260901140323 | 26 | 319 | 0.0 | 0.0 | 0.00 | 0.38 | 0.00 | 76 | 1023.0 |
| 20260901140223 | 26 | 321 | 0.0 | 0.0 | 0.00 | 0.38 | 0.00 | 78 | 1023.0 |
| 20260901140120 | 26 | 336 | 0.0 | 0.0 | 0.00 | 0.38 | 0.00 | 78 | 1022.9 |
| 20260901140014 | 26 | 338 | 0.0 | 0.0 | 0.00 | 0.38 | 0.00 | 78 | 1023.0 |
| 20260901135914 | 26 | 338 | 0.0 | 0.0 | 0.00 | 0.38 | 0.00 | 79 | 1023.0 |
| 20260901135811 | 26 | 339 | 0.0 | 0.0 | 0.00 | 0.38 | 0.00 | 79 | 1023.0 |
| 20260901135712 | 26 | 329 | 0.0 | 0.0 | 0.00 | 0.38 | 0.00 | 79 | 1022.9 |
| 20260901135609 | 26 | 326 | 0.0 | 0.0 | 0.00 | 0.38 | 0.00 | 79 | 1023.0 |
| 20260901135506 | 26 | 326 | 0.0 | 0.0 | 0.00 | 0.38 | 0.00 | 78 | 1023.0 |
| 20260901135403 | 26 | 326 | 0.0 | 0.0 | 0.00 | 0.38 | 0.00 | 76 | 1023.0 |
| 20260901135305 | 26 | 326 | 0.0 | 0.0 | 0.00 | 0.38 | 0.00 | 77 | 1022.9 |
| 20260901135204 | 26 | 316 | 0.0 | 0.0 | 0.00 | 0.38 | 0.00 | 77 | 1022.9 |
| 20260901135104 | 26 | 325 | 0.0 | 0.0 | 0.00 | 0.38 | 0.00 | 78 | 1023.0 |
| 20260901134958 | 26 | 324 | 0.0 | 0.0 | 0.00 | 0.38 | 0.00 | 78 | 1023.0 |
| 20260901134856 | 26 | 324 | 0.0 | 0.0 | 0.00 | 0.38 | 0.00 | 78 | 1022.9 |
| 20260901134758 | 26 | 313 | 0.0 | 0.0 | 0.00 | 0.38 | 0.00 | 78 | 1023.0 |
| 20260901134657 | 26 | 344 | 0.0 | 0.0 | 0.00 | 0.38 | 0.00 | 78 | 1023.0 |
| 20260901134557 | 26 | 331 | 0.0 | 0.0 | 0.00 | 0.38 | 0.00 | 79 | 1023.0 |
| 20260901134449 | 26 | 313 | 0.0 | 0.0 | 0.00 | 0.38 | 0.00 | 79 | 1023.0 |
| 20260901134347 | 26 | 348 | 0.0 | 0.0 | 0.00 | 0.38 | 0.00 | 79 | 1022.9 |
| 20260901134247 | 26 | 325 | 0.0 | 0.0 | 0.00 | 0.38 | 0.00 | 78 | 1023.0 |
| 20260901134146 | 26 | 313 | 0.0 | 0.0 | 0.00 | 0.38 | 0.00 | 79 | 1023.0 |
| 20260901134048 | 26 | 327 | 0.0 | 0.0 | 0.00 | 0.38 | 0.00 | 79 | 1022.9 |
| 20260901133947 | 26 | 331 | 0.0 | 0.0 | 0.00 | 0.38 | 0.00 | 81 | 1022.9 |
| 20260901133846 | 26 | 329 | 0.0 | 0.0 | 0.00 | 0.38 | 0.00 | 82 | 1022.9 |
| 20260901133744 | 26 | 337 | 0.0 | 0.0 | 0.00 | 0.38 | 0.00 | 82 | 1023.0 |
| 20260901133644 | 26 | 346 | 0.0 | 0.0 | 0.00 | 0.38 | 0.00 | 81 | 1022.9 |
| 20260901133542 | 26 | 346 | 0.0 | 0.0 | 0.00 | 0.38 | 0.00 | 81 | 1022.9 |
| 20260901133442 | 26 | 344 | 0.0 | 0.0 | 0.00 | 0.38 | 0.00 | 81 | 1022.9 |
| 20260901133341 | 26 | 341 | 0.0 | 0.0 | 0.00 | 0.38 | 0.00 | 81 | 1022.9 |
| 20260901133239 | 26 | 338 | 0.0 | 0.0 | 0.00 | 0.38 | 0.00 | 81 | 1022.8 |
| 20260901133137 | 26 | 337 | 0.0 | 0.0 | 0.00 | 0.38 | 0.00 | 82 | 1022.8 |
| 20260901133036 | 26 | 337 | 0.0 | 0.0 | 0.00 | 0.38 | 0.00 | 81 | 1022.8 |
| 20260901132929 | 26 | 337 | 0.0 | 0.0 | 0.00 | 0.38 | 0.00 | 82 | 1022.8 |
| 20260901132829 | 26 | 337 | 0.0 | 0.0 | 0.00 | 0.38 | 0.00 | 81 | 1022.8 |
| 20260901132730 | 26 | 337 | 0.0 | 0.0 | 0.00 | 0.38 | 0.00 | 81 | 1022.8 |
| 20260901132627 | 26 | 337 | 0.0 | 0.0 | 0.00 | 0.38 | 0.00 | 80 | 1022.9 |
| 20260901132526 | 26 | 337 | 0.0 | 0.0 | 0.00 | 0.38 | 0.00 | 81 | 1022.8 |
| 20260901132426 | 26 | 337 | 0.0 | 0.0 | 0.00 | 0.38 | 0.00 | 81 | 1022.8 |
| 20260901132324 | 26 | 336 | 0.0 | 0.0 | 0.00 | 0.38 | 0.00 | 81 | 1022.8 |
| 20260901132223 | 26 | 336 | 0.0 | 0.0 | 0.00 | 0.38 | 0.00 | 81 | 1022.9 |
| 20260901132122 | 26 | 336 | 0.0 | 0.0 | 0.00 | 0.38 | 0.00 | 81 | 1022.8 |
| 20260901132020 | 26 | 336 | 0.0 | 0.0 | 0.00 | 0.38 | 0.00 | 81 | 1022.9 |
| 20260901131919 | 26 | 336 | 0.0 | 0.0 | 0.00 | 0.38 | 0.00 | 80 | 1022.8 |
| 20260901131818 | 26 | 336 | 0.0 | 0.0 | 0.00 | 0.38 | 0.00 | 80 | 1022.8 |
| 20260901131717 | 26 | 311 | 0.0 | 0.0 | 0.00 | 0.38 | 0.00 | 79 | 1022.8 |
| 20260901131616 | 26 | 311 | 0.0 | 0.0 | 0.00 | 0.38 | 0.00 | 80 | 1022.9 |
| 20260901131513 | 26 | 311 | 0.0 | 0.0 | 0.00 | 0.38 | 0.00 | 80 | 1022.9 |
| 20260901131405 | 26 | 310 | 0.0 | 0.0 | 0.00 | 0.38 | 0.00 | 80 | 1022.9 |
| 20260901131306 | 26 | 310 | 0.0 | 0.0 | 0.00 | 0.38 | 0.00 | 81 | 1022.9 |
| 20260901131205 | 26 | 281 | 0.0 | 0.0 | 0.00 | 0.38 | 0.00 | 81 | 1022.8 |
| 20260901131106 | 26 | 279 | 0.0 | 0.0 | 0.00 | 0.38 | 0.00 | 80 | 1022.9 |
| 20260901131004 | 26 | 278 | 0.0 | 0.0 | 0.00 | 0.38 | 0.00 | 81 | 1022.8 |
| 20260901130902 | 26 | 273 | 0.0 | 0.0 | 0.00 | 0.38 | 0.00 | 80 | 1022.8 |
| 20260901130802 | 26 | 258 | 0.0 | 0.0 | 0.00 | 0.38 | 0.00 | 79 | 1022.8 |
| 20260901130701 | 26 | 246 | 0.0 | 0.0 | 0.00 | 0.38 | 0.00 | 78 | 1022.9 |
| 20260901130559 | 26 | 246 | 0.0 | 0.0 | 0.00 | 0.38 | 0.00 | 79 | 1022.8 |
| 20260901130458 | 26 | 238 | 0.0 | 0.0 | 0.00 | 0.38 | 0.00 | 79 | 1022.9 |
| 20260901130357 | 26 | 238 | 0.0 | 0.0 | 0.00 | 0.38 | 0.00 | 80 | 1022.9 |
| 20260901130256 | 26 | 238 | 0.0 | 0.0 | 0.00 | 0.38 | 0.00 | 80 | 1022.8 |
| 20260901130155 | 26 | 237 | 0.0 | 0.0 | 0.00 | 0.38 | 0.00 | 79 | 1022.9 |
| 20260901130055 | 26 | 281 | 0.0 | 0.0 | 0.00 | 0.38 | 0.00 | 78 | 1022.8 |
| 20260901125952 | 26 | 239 | 0.0 | 0.0 | 0.00 | 0.38 | 0.00 | 79 | 1022.8 |
| 20260901125845 | 26 | 239 | 0.0 | 0.0 | 0.00 | 0.38 | 0.00 | 80 | 1022.9 |
| 20260901125745 | 26 | 239 | 0.0 | 0.0 | 0.00 | 0.38 | 0.00 | 79 | 1022.9 |
| 20260901125646 | 26 | 239 | 0.0 | 0.0 | 0.00 | 0.38 | 0.00 | 79 | 1022.8 |
| 20260901125543 | 26 | 239 | 0.0 | 0.0 | 0.00 | 0.38 | 0.00 | 79 | 1022.9 |
| 20260901125442 | 26 | 239 | 0.0 | 0.0 | 0.00 | 0.38 | 0.00 | 80 | 1022.8 |
| 20260901125342 | 26 | 239 | 0.0 | 0.0 | 0.00 | 0.38 | 0.00 | 80 | 1022.8 |
| 20260901125240 | 26 | 239 | 0.0 | 0.0 | 0.00 | 0.38 | 0.00 | 80 | 1022.8 |
| 20260901125139 | 26 | 239 | 0.0 | 0.0 | 0.00 | 0.38 | 0.00 | 80 | 1022.8 |
| 20260901125037 | 26 | 239 | 0.0 | 0.0 | 0.00 | 0.38 | 0.00 | 80 | 1022.8 |
| 20260901124935 | 26 | 257 | 0.0 | 0.0 | 0.00 | 0.38 | 0.00 | 80 | 1022.8 |
| 20260901124848 | 26 | 308 | 0.0 | 0.0 | 0.00 | 0.38 | 0.00 | 80 | 1022.8 |
| 20260901124733 | 26 | 322 | 0.0 | 0.0 | 0.00 | 0.38 | 0.00 | 80 | 1022.8 |
| 20260901124643 | 26 | 322 | 0.0 | 0.0 | 0.00 | 0.38 | 0.00 | 80 | 1022.7 |
| 20260901124541 | 26 | 321 | 0.0 | 0.0 | 0.00 | 0.38 | 0.00 | 80 | 1022.8 |
| 20260901124440 | 26 | 319 | 0.0 | 0.0 | 0.00 | 0.38 | 0.00 | 81 | 1022.7 |
| 20260901124324 | 26 | 319 | 0.0 | 0.0 | 0.00 | 0.38 | 0.00 | 81 | 1022.8 |
| 20260901124223 | 26 | 319 | 0.0 | 0.0 | 0.00 | 0.38 | 0.00 | 80 | 1022.8 |
| 20260901124123 | 26 | 30 | 0.0 | 0.0 | 0.00 | 0.38 | 0.00 | 81 | 1022.8 |
| 20260901124021 | 26 | 36 | 0.0 | 0.0 | 0.00 | 0.38 | 0.00 | 81 | 1022.8 |
| 20260901123919 | 26 | 36 | 0.0 | 0.0 | 0.00 | 0.38 | 0.00 | 80 | 1022.8 |
| 20260901123819 | 26 | 36 | 0.0 | 0.0 | 0.00 | 0.38 | 0.00 | 79 | 1022.9 |
| 20260901123716 | 26 | 36 | 0.0 | 0.0 | 0.00 | 0.38 | 0.00 | 79 | 1022.7 |
| 20260901123617 | 26 | 36 | 0.0 | 0.0 | 0.00 | 0.38 | 0.00 | 78 | 1022.7 |
| 20260901123515 | 26 | 20 | 0.0 | 0.0 | 0.00 | 0.38 | 0.00 | 78 | 1022.8 |
| 20260901123413 | 26 | 17 | 0.0 | 0.0 | 0.00 | 0.38 | 0.00 | 78 | 1022.8 |
| 20260901123308 | 25 | 17 | 0.0 | 0.0 | 0.00 | 0.38 | 0.00 | 78 | 1022.8 |
| 20260901123206 | 25 | 17 | 0.0 | 0.0 | 0.00 | 0.38 | 0.00 | 78 | 1022.9 |
| 20260901123108 | 25 | 17 | 0.0 | 0.0 | 0.00 | 0.38 | 0.00 | 79 | 1022.8 |
| 20260901123007 | 25 | 17 | 0.0 | 0.0 | 0.00 | 0.38 | 0.00 | 78 | 1022.8 |
| 20260901122907 | 25 | 17 | 0.0 | 0.0 | 0.00 | 0.38 | 0.00 | 78 | 1022.7 |
| 20260901122759 | 25 | 17 | 0.0 | 0.0 | 0.00 | 0.38 | 0.00 | 80 | 1022.6 |
| 20260901122659 | 25 | 17 | 0.0 | 0.0 | 0.00 | 0.38 | 0.00 | 79 | 1022.7 |
| 20260901122559 | 25 | 17 | 0.0 | 0.0 | 0.00 | 0.38 | 0.00 | 79 | 1022.7 |
| 20260901122459 | 25 | 17 | 0.0 | 0.0 | 0.00 | 0.38 | 0.00 | 80 | 1022.7 |
| 20260901122358 | 25 | 17 | 0.0 | 0.0 | 0.00 | 0.38 | 0.00 | 80 | 1022.6 |
| 20260901122253 | 25 | 17 | 0.0 | 0.0 | 0.00 | 0.38 | 0.00 | 80 | 1022.6 |
| 20260901122152 | 25 | 17 | 0.0 | 0.0 | 0.00 | 0.38 | 0.00 | 80 | 1022.6 |
| 20260901122052 | 25 | 17 | 0.0 | 0.0 | 0.00 | 0.38 | 0.00 | 81 | 1022.6 |
| 20260901121952 | 25 | 17 | 0.0 | 0.0 | 0.00 | 0.38 | 0.00 | 81 | 1022.6 |
| 20260901121851 | 25 | 17 | 0.0 | 0.0 | 0.00 | 0.38 | 0.00 | 81 | 1022.6 |
| 20260901121748 | 25 | 17 | 0.0 | 0.0 | 0.00 | 0.38 | 0.00 | 81 | 1022.5 |
| 20260901121646 | 25 | 17 | 0.0 | 0.0 | 0.00 | 0.38 | 0.00 | 82 | 1022.6 |
| 20260901121546 | 25 | 17 | 0.0 | 0.0 | 0.00 | 0.38 | 0.00 | 81 | 1022.5 |
| 20260901121446 | 25 | 17 | 0.0 | 0.0 | 0.00 | 0.38 | 0.00 | 81 | 1022.5 |
| 20260901121346 | 25 | 17 | 0.0 | 0.0 | 0.00 | 0.38 | 0.00 | 82 | 1022.5 |
| 20260901121240 | 25 | 17 | 0.0 | 0.0 | 0.00 | 0.38 | 0.00 | 81 | 1022.5 |
| 20260901121138 | 25 | 217 | 0.0 | 0.0 | 0.00 | 0.38 | 0.00 | 81 | 1022.5 |
| 20260901121039 | 25 | 215 | 0.0 | 0.0 | 0.00 | 0.38 | 0.00 | 82 | 1022.5 |
| 20260901120938 | 24 | 292 | 0.0 | 0.0 | 0.00 | 0.38 | 0.00 | 81 | 1022.4 |
| 20260901120835 | 24 | 281 | 0.0 | 0.0 | 0.00 | 0.38 | 0.00 | 81 | 1022.4 |
| 20260901120736 | 24 | 281 | 0.0 | 0.0 | 0.00 | 0.38 | 0.00 | 80 | 1022.4 |
| 20260901120633 | 24 | 281 | 0.0 | 0.0 | 0.00 | 0.38 | 0.00 | 80 | 1022.4 |
| 20260901120531 | 24 | 280 | 0.0 | 0.0 | 0.00 | 0.38 | 0.00 | 81 | 1022.3 |
| 20260901120432 | 24 | 280 | 0.0 | 0.0 | 0.00 | 0.38 | 0.00 | 81 | 1022.4 |
| 20260901120329 | 24 | 280 | 0.0 | 0.0 | 0.00 | 0.38 | 0.00 | 81 | 1022.3 |
| 20260901120226 | 24 | 281 | 0.0 | 0.0 | 0.00 | 0.38 | 0.00 | 80 | 1022.3 |
| 20260901120123 | 24 | 281 | 0.0 | 0.0 | 0.00 | 0.38 | 0.00 | 80 | 1022.3 |
| 20260901120025 | 24 | 280 | 0.0 | 0.0 | 0.00 | 0.38 | 0.00 | 80 | 1022.3 |
| 20260901115923 | 24 | 280 | 0.0 | 0.0 | 0.00 | 0.38 | 0.00 | 80 | 1022.3 |
| 20260901115824 | 24 | 280 | 0.0 | 0.0 | 0.00 | 0.38 | 0.00 | 80 | 1022.3 |
| 20260901115715 | 24 | 280 | 0.0 | 0.0 | 0.00 | 0.38 | 0.00 | 80 | 1022.3 |
| 20260901115616 | 24 | 281 | 0.0 | 0.0 | 0.00 | 0.38 | 0.00 | 80 | 1022.3 |
| 20260901115514 | 24 | 281 | 0.0 | 0.0 | 0.00 | 0.38 | 0.00 | 80 | 1022.3 |
| 20260901115416 | 24 | 280 | 0.0 | 0.0 | 0.00 | 0.38 | 0.00 | 80 | 1022.1 |
| 20260901115314 | 24 | 280 | 0.0 | 0.0 | 0.00 | 0.38 | 0.00 | 80 | 1022.2 |
| 20260901115207 | 23 | 280 | 0.0 | 0.0 | 0.00 | 0.38 | 0.00 | 80 | 1022.2 |
| 20260901115108 | 23 | 280 | 0.0 | 0.0 | 0.00 | 0.38 | 0.00 | 80 | 1022.3 |
| 20260901115008 | 23 | 280 | 0.0 | 0.0 | 0.00 | 0.38 | 0.00 | 80 | 1022.3 |
| 20260901114907 | 23 | 280 | 0.0 | 0.0 | 0.00 | 0.38 | 0.00 | 81 | 1022.2 |
| 20260901114807 | 23 | 280 | 0.0 | 0.0 | 0.00 | 0.38 | 0.00 | 81 | 1022.2 |
| 20260901114702 | 23 | 280 | 0.0 | 0.0 | 0.00 | 0.38 | 0.00 | 81 | 1022.2 |
| 20260901114601 | 23 | 280 | 0.0 | 0.0 | 0.00 | 0.38 | 0.00 | 81 | 1022.2 |
| 20260901114502 | 23 | 280 | 0.0 | 0.0 | 0.00 | 0.38 | 0.00 | 82 | 1022.2 |
| 20260901114402 | 23 | 280 | 0.0 | 0.0 | 0.00 | 0.38 | 0.00 | 82 | 1022.1 |
| 20260901114302 | 23 | 280 | 0.0 | 0.0 | 0.00 | 0.38 | 0.00 | 82 | 1022.1 |
| 20260901114155 | 23 | 280 | 0.0 | 0.0 | 0.00 | 0.38 | 0.00 | 82 | 1022.2 |
| 20260901114055 | 23 | 280 | 0.0 | 0.0 | 0.00 | 0.38 | 0.00 | 82 | 1022.1 |
| 20260901113954 | 23 | 280 | 0.0 | 0.0 | 0.00 | 0.38 | 0.00 | 82 | 1022.2 |
| 20260901113853 | 23 | 280 | 0.0 | 0.0 | 0.00 | 0.38 | 0.00 | 82 | 1022.0 |
| 20260901113752 | 23 | 280 | 0.0 | 0.0 | 0.00 | 0.38 | 0.00 | 82 | 1022.0 |
| 20260901113646 | 23 | 267 | 0.0 | 0.0 | 0.00 | 0.38 | 0.00 | 82 | 1022.1 |
| 20260901113545 | 23 | 275 | 0.0 | 0.0 | 0.00 | 0.38 | 0.00 | 82 | 1022.0 |